ECMWFFLT1_925_temp_093.txt.gz
Temp
26 26 26 26 26 26 27 27 26 26 26 25 25 25 25 25 24 24 23 23 24 23 24 24 24 24 24 24 24 24 24 24 24 25 24 25 25 25 25 25 25 25 25 25 25 25 25 24 24 24 24 24 24 24 23 23 23 23 23 23 23 24 24
26 26 26 25 26 26 27 27 26 26 26 25 25 25 25 24 24 24 24 24 24 24 24 24 24 24 24 24 24 24 24 24 24 24 24 25 25 25 25 25 25 25 25 25 25 25 25 25 25 24 24 24 24 24 23 23 23 23 23 23 23 23 23
25 26 25 25 25 26 26 26 26 26 26 25 25 25 25 24 24 24 24 24 24 24 24 24 24 24 24 24 24 24 24 24 24 24 24 24 25 25 25 25 25 25 25 25 25 25 25 25 25 25 24 24 24 24 24 23 23 23 23 23 23 23 23
24 25 25 25 25 26 26 26 26 26 26 25 25 25 25 24 24 24 24 24 24 23 24 24 24 24 24 24 24 24 24 24 24 24 24 24 25 25 25 25 25 25 25 25 25 25 25 25 25 25 25 24 24 24 24 24 24 24 24 24 23 24 24
23 23 24 24 25 25 25 26 25 25 25 25 25 25 24 24 24 23 23 23 23 23 23 24 23 23 24 24 24 24 24 24 24 24 24 24 25 25 25 25 25 25 25 25 25 25 25 25 25 25 25 24 24 24 24 24 24 24 24 24 23 23 24
23 23 23 23 23 24 24 25 25 25 25 24 24 24 24 24 24 23 23 23 23 23 23 23 23 23 24 24 24 24 25 25 24 24 24 24 25 25 25 25 25 25 25 25 25 25 25 25 25 25 25 24 24 24 24 24 24 24 24 24 24 24 24
22 22 22 22 22 22 22 23 24 24 24 24 24 24 24 24 24 23 23 23 23 23 23 23 23 24 24 24 24 24 24 24 25 24 24 24 25 25 25 25 25 25 25 25 25 25 25 25 25 25 25 24 24 24 24 24 24 24 24 24 24 24 24
23 22 22 22 22 22 22 22 22 23 24 24 24 24 24 24 24 24 23 23 23 23 23 23 23 24 24 24 24 24 24 24 24 24 24 24 24 24 24 24 25 25 25 25 25 25 25 25 25 25 25 24 24 24 24 25 25 24 24 24 24 24 24
23 23 22 22 22 22 22 22 22 22 23 23 24 24 24 24 24 24 24 23 23 23 23 23 23 24 24 24 24 24 24 24 24 24 24 24 24 24 24 24 24 25 25 25 25 25 25 25 25 25 25 24 24 24 25 25 25 25 25 25 24 24 24
23 23 22 22 22 22 22 22 22 22 22 23 23 23 23 23 24 24 24 24 24 24 24 24 23 23 23 24 23 23 23 23 23 24 24 24 24 24 24 24 24 24 24 24 24 24 25 25 24 24 24 24 24 25 25 25 25 25 25 25 25 24 24
23 23 23 22 22 22 22 22 21 21 22 22 22 23 23 23 23 23 23 23 24 24 24 23 23 23 24 24 24 24 23 23 23 23 23 24 24 24 24 24 24 24 24 24 24 24 24 24 24 24 24 24 25 25 25 25 25 25 25 25 25 25 24
22 22 22 22 21 21 21 21 21 21 21 21 21 22 22 23 23 23 23 23 23 24 24 23 23 23 23 23 24 24 23 23 22 22 23 23 23 24 24 24 24 24 24 24 24 24 24 24 24 24 24 24 25 25 25 25 25 25 25 25 25 25 25
21 20 20 20 21 21 21 21 21 20 20 21 21 21 22 22 22 22 22 22 23 23 23 22 23 23 22 22 22 23 23 22 22 22 22 22 23 23 23 23 23 23 23 23 24 24 24 24 24 24 24 24 24 25 25 25 25 25 25 25 25 25 25
20 20 20 20 20 20 20 20 20 20 20 20 21 21 21 21 21 21 21 22 22 22 22 22 22 23 22 21 21 21 21 21 22 22 22 22 22 22 22 23 23 23 23 23 23 23 24 24 24 24 24 24 24 25 25 25 25 25 25 25 25 25 25
20 20 20 20 20 20 19 19 19 19 19 19 20 20 20 20 21 21 21 21 21 21 21 21 21 21 21 21 20 20 20 21 21 22 21 21 21 21 22 22 22 23 23 23 23 23 23 23 24 24 24 24 24 24 24 24 25 25 25 25 25 25 25
20 20 20 20 20 20 20 20 20 19 19 19 19 19 19 20 20 20 20 20 21 21 21 21 21 21 21 20 20 20 20 20 21 22 21 20 20 21 22 21 21 21 22 22 23 23 23 23 23 23 23 24 24 24 24 24 24 25 25 25 25 25 24
20 20 20 20 20 20 20 20 20 19 19 19 19 19 19 19 20 19 19 20 20 20 20 20 20 20 20 20 20 20 20 20 21 21 20 20 20 21 21 21 20 21 21 22 22 22 23 23 23 23 23 23 23 24 24 24 24 24 25 25 25 25 24
20 20 20 20 20 20 20 20 20 19 19 19 19 18 18 18 18 19 19 19 19 19 20 20 20 20 20 20 19 19 19 19 20 20 19 19 20 20 20 20 20 21 21 21 22 22 22 22 22 22 22 23 23 23 23 23 24 24 25 25 25 25 25
20 20 20 20 20 20 20 20 19 19 18 18 18 17 17 17 17 18 18 18 18 19 19 19 19 19 19 19 19 19 19 19 19 19 19 19 19 20 20 20 20 20 20 21 21 21 21 21 22 22 22 22 22 23 23 23 23 24 24 25 25 25 25
21 21 21 21 20 20 20 20 19 18 18 17 17 17 17 17 17 17 17 17 17 18 18 18 18 18 18 18 19 19 19 19 19 19 19 19 19 19 20 20 20 20 20 20 21 21 20 20 21 21 21 21 22 22 22 22 23 23 23 24 24 25 25
21 21 21 21 20 20 19 19 18 18 18 17 17 17 16 16 16 16 16 17 17 17 17 17 17 17 17 17 18 18 18 18 18 18 18 18 19 19 19 20 20 20 20 20 20 20 20 20 20 21 21 21 21 22 22 21 21 22 22 23 23 24 24
21 21 21 21 20 19 19 19 18 18 18 17 17 17 17 16 16 16 16 16 16 16 16 16 16 16 16 17 17 17 18 18 18 18 18 18 18 18 19 19 19 19 20 20 20 20 20 20 20 20 21 20 21 21 21 21 21 21 21 22 22 23 23
21 21 21 20 20 19 18 18 18 18 17 17 17 17 17 16 16 16 16 16 16 16 16 16 16 16 16 16 16 17 17 17 18 18 18 18 18 18 18 19 19 19 19 19 19 19 19 20 20 20 20 20 20 20 20 20 20 21 21 21 22 22 22
21 20 20 20 19 19 18 18 18 18 17 17 17 17 17 17 17 17 16 15 16 16 15 15 15 15 15 16 16 17 17 17 17 18 18 18 18 18 18 18 19 19 18 18 18 19 19 19 20 20 20 20 20 20 20 19 19 20 20 21 21 21 21
20 20 20 19 19 19 18 18 18 18 17 17 16 17 17 17 17 17 16 15 15 15 15 15 15 15 15 15 16 17 17 17 17 17 17 17 17 18 18 18 18 18 18 18 18 18 18 19 19 19 19 19 19 19 19 18 18 19 19 20 20 21 21
19 20 19 19 19 18 18 17 18 18 17 17 16 16 16 17 17 16 15 15 15 15 15 15 15 15 15 16 16 16 16 16 17 17 17 17 17 18 18 18 18 19 19 18 18 18 18 19 19 19 18 18 18 18 18 18 18 18 19 19 20 20 20
18 19 19 18 18 17 17 17 17 17 16 16 16 16 17 17 16 16 15 15 15 15 15 15 15 15 15 16 16 15 15 16 16 16 17 17 17 18 18 18 18 18 18 18 18 18 18 18 18 18 17 17 18 18 18 18 18 18 18 19 19 19 19
18 18 18 17 17 17 17 17 17 17 16 16 16 17 17 17 16 15 15 15 15 14 15 15 15 15 15 15 15 15 15 16 16 16 16 17 17 17 17 17 18 18 18 18 18 18 18 17 17 18 17 17 17 17 17 17 17 18 18 18 18 19 19
18 18 17 17 17 17 17 16 16 16 16 16 16 16 17 16 16 15 15 14 14 15 15 15 15 15 15 15 15 15 15 15 15 16 16 16 16 17 17 17 17 17 18 18 18 18 18 17 17 18 18 17 17 17 17 16 16 17 17 17 17 18 18
17 17 17 17 17 17 17 16 15 15 15 16 16 16 16 16 15 14 14 14 14 15 15 15 15 15 14 14 14 14 14 14 15 15 15 15 15 16 16 16 16 16 17 17 17 17 17 17 17 17 17 18 17 16 17 17 17 16 16 17 17 17 17
16 16 17 17 16 16 16 16 15 15 15 15 15 16 16 16 15 14 14 14 14 14 14 14 14 14 14 13 14 14 14 14 14 14 14 14 14 15 15 15 15 15 15 15 16 16 16 16 16 16 17 17 16 16 16 16 16 16 16 17 17 17 17
15 15 15 16 15 15 15 15 15 15 14 14 15 15 15 15 15 14 14 14 14 14 14 14 14 13 13 13 13 13 13 13 13 13 13 13 14 14 14 14 14 14 14 15 15 15 15 15 16 16 16 16 15 15 15 15 15 15 16 17 17 17 17
15 15 15 15 15 15 16 16 15 15 14 14 14 14 14 14 14 14 14 14 14 14 14 14 13 13 13 13 13 13 13 13 13 13 13 13 13 13 13 13 14 14 14 14 15 15 15 15 15 15 15 15 15 14 15 15 15 15 15 15 16 16 16
15 14 14 14 15 15 15 15 15 15 14 14 14 14 14 13 13 13 13 13 13 13 14 13 13 13 13 13 13 13 13 13 13 13 13 13 13 13 13 13 13 14 14 14 14 14 14 15 14 14 14 14 14 14 15 15 15 14 14 14 14 15 15
14 14 14 14 15 15 15 15 15 14 14 13 13 13 13 13 13 13 13 13 13 13 13 13 12 13 13 13 13 13 13 13 12 12 12 12 12 12 12 12 12 13 13 12 12 12 13 13 13 13 13 13 14 13 14 15 14 13 13 13 13 13 14
14 14 14 15 15 15 15 15 14 14 14 13 13 13 14 13 13 13 13 13 13 12 12 12 12 12 12 13 13 12 12 12 12 12 12 12 12 12 12 12 12 12 12 12 12 12 12 12 12 12 12 13 13 12 13 13 13 12 12 13 13 13 13
15 14 14 14 14 15 15 14 14 14 14 14 13 13 14 13 13 13 13 12 12 12 12 12 12 12 12 12 12 12 12 12 12 11 11 11 11 11 12 12 12 12 12 12 12 12 12 12 11 11 11 12 12 12 12 12 12 12 12 12 12 13 13
15 15 14 14 15 15 15 14 14 14 14 14 13 14 14 14 14 13 13 13 12 12 12 12 12 12 12 12 12 11 11 11 11 11 11 11 11 11 11 12 12 12 11 11 11 11 11 11 11 11 11 11 12 12 12 12 12 12 13 13 13 13 13

ECMWFFLT1_925_temp_096.txt.gz
Temp
29 29 30 30 30 29 30 30 30 30 30 29 29 29 29 28 28 28 27 26 26 26 25 25 25 25 25 25 25 25 25 25 25 25 25 25 26 26 26 26 26 26 26 26 26 26 25 25 25 25 25 24 24 24 24 24 24 24 24 24 24 24 25
28 29 30 29 29 29 30 30 30 30 30 29 29 29 29 28 28 27 27 26 26 26 26 25 25 25 25 25 25 25 25 25 25 25 25 25 25 25 26 26 26 26 26 26 26 26 25 25 25 25 25 25 25 24 24 24 24 24 24 24 24 24 24
27 28 29 29 29 29 30 30 30 30 30 29 29 29 28 28 27 27 26 26 26 26 26 26 25 25 25 25 25 25 25 25 25 25 26 26 26 26 26 26 26 26 26 26 26 26 26 26 25 25 25 25 25 24 24 24 24 24 24 24 24 25 24
25 27 28 29 29 29 30 30 30 30 30 29 29 29 28 28 27 26 26 26 26 26 26 26 26 26 26 25 25 25 25 25 25 25 26 26 26 26 26 26 26 26 26 26 26 26 26 26 25 25 25 25 25 25 24 24 24 24 24 24 24 25 24
25 26 28 28 28 29 30 30 29 29 29 29 29 29 28 27 27 26 26 26 26 26 26 26 27 27 26 26 26 26 25 25 25 25 26 26 26 26 26 26 26 27 26 26 26 26 26 26 26 25 25 25 25 25 25 25 25 24 24 24 24 25 25
25 26 27 27 28 28 29 29 29 29 29 29 28 28 28 27 27 27 27 26 26 26 26 26 27 27 26 26 26 26 26 25 25 25 25 26 26 26 26 26 26 27 27 27 26 26 26 26 26 26 26 26 26 26 25 25 25 25 25 24 25 25 26
25 25 25 26 27 28 29 29 29 29 28 28 28 28 27 27 27 27 27 26 26 26 26 26 27 27 26 27 26 26 26 26 25 25 25 25 26 26 26 26 26 27 27 27 26 26 26 26 26 26 26 26 26 26 26 25 25 25 25 25 25 25 25
25 24 24 24 25 27 28 29 29 29 28 28 28 27 27 26 27 27 27 26 26 26 26 26 26 26 26 26 26 26 26 26 26 25 25 26 26 26 26 26 26 26 26 26 26 26 26 26 26 26 26 26 26 26 26 25 25 25 25 25 25 25 25
26 25 23 23 23 23 25 26 26 26 27 28 28 27 26 26 26 26 26 26 26 26 26 26 26 25 25 25 25 25 26 26 26 26 26 26 27 27 27 27 27 26 26 26 27 27 26 26 26 26 25 26 25 25 25 25 25 25 25 25 25 25 26
26 25 24 23 22 22 23 23 22 23 25 26 27 26 26 26 26 26 26 26 25 26 25 25 25 25 24 25 25 25 25 25 25 25 26 26 27 27 27 27 27 27 27 27 27 27 27 26 26 26 25 25 25 25 25 25 25 25 26 25 25 25 25
27 26 24 23 22 22 22 22 22 22 23 24 24 25 25 26 26 25 25 25 25 25 25 24 24 24 24 24 24 24 24 25 25 25 25 25 25 26 27 27 28 27 27 27 27 28 27 26 26 25 25 25 25 25 25 25 25 25 26 26 26 26 26
27 26 25 23 22 22 22 22 22 22 22 23 23 23 23 24 24 24 25 25 25 25 24 24 23 23 23 23 24 24 24 24 25 25 25 24 24 25 26 26 27 27 27 27 27 27 27 27 26 26 25 25 25 26 25 25 25 25 25 26 26 26 26
26 26 25 25 24 22 22 22 22 22 22 22 22 22 22 23 23 23 23 23 24 24 24 23 23 23 23 23 24 23 24 24 24 24 24 24 24 24 24 25 26 27 27 27 27 27 27 27 27 26 26 25 26 26 26 25 25 25 25 25 26 26 26
24 24 24 24 24 22 22 22 22 22 21 21 21 22 22 22 22 22 22 22 23 23 23 23 23 23 23 23 23 23 23 23 23 23 23 23 23 23 23 24 25 26 26 26 26 26 27 27 27 27 26 26 26 26 26 26 25 25 25 25 26 26 26
23 23 23 22 22 21 21 21 21 22 21 21 21 21 21 21 21 22 21 22 22 23 23 22 22 22 22 23 23 23 23 23 23 23 23 23 23 23 23 23 24 24 25 25 25 26 26 27 27 27 27 26 26 26 26 26 26 26 26 26 26 26 26
23 23 22 21 20 20 21 21 21 21 21 21 21 21 20 21 21 21 21 22 22 23 22 22 22 22 22 22 23 23 23 23 23 22 22 22 23 23 23 22 23 23 23 24 24 25 26 26 26 27 27 26 26 26 26 27 27 27 26 26 26 26 26
23 22 21 21 21 22 22 22 22 21 21 21 21 20 20 20 20 21 21 21 21 22 22 22 22 22 21 22 22 22 21 22 22 21 21 21 21 22 22 22 22 22 22 23 24 24 24 24 25 26 26 26 26 26 27 27 27 26 26 25 25 25 26
22 21 21 22 22 22 22 22 22 21 21 21 20 20 20 20 20 20 20 20 21 21 21 21 22 21 21 22 21 21 21 21 21 21 21 21 21 21 21 21 21 21 21 22 23 23 23 24 24 25 25 26 26 26 27 26 26 25 25 25 25 25 25
23 22 23 23 23 22 22 22 22 21 20 20 19 19 19 19 19 19 19 19 20 20 20 20 21 21 21 21 21 21 21 21 21 21 21 21 21 20 21 21 21 21 21 21 22 23 23 23 24 24 24 25 25 26 26 25 24 25 24 24 25 25 25
24 24 24 24 23 23 22 21 20 19 19 19 19 18 18 18 18 18 18 18 18 18 19 19 19 19 19 20 20 20 20 21 21 21 21 21 20 20 21 21 21 21 21 21 22 22 22 23 23 24 24 24 24 25 25 23 23 23 24 24 24 24 25
24 24 24 24 23 22 21 20 19 19 18 19 18 18 17 17 17 17 17 17 17 17 17 17 17 17 17 18 18 18 19 19 19 20 20 20 20 20 21 21 21 21 21 21 21 22 22 22 22 23 23 23 24 24 23 22 22 22 23 23 24 24 24
24 24 23 23 23 22 21 21 20 18 18 17 17 17 17 17 17 17 17 16 16 16 16 16 16 16 16 17 17 17 17 18 18 18 18 19 19 20 20 20 20 20 21 21 21 21 21 22 22 22 22 23 24 23 21 21 21 21 22 23 23 23 24
24 23 23 23 23 22 21 20 20 19 18 17 17 17 16 16 16 16 16 16 16 16 16 16 16 16 16 16 16 17 17 17 18 17 17 18 18 18 18 19 19 19 20 20 21 21 21 21 21 22 22 22 23 22 20 20 21 20 21 22 22 23 23
24 23 23 22 22 22 21 20 20 19 18 17 17 16 16 17 17 16 16 15 15 16 15 15 16 16 16 16 16 16 16 17 17 17 17 17 17 17 17 18 18 18 19 19 20 20 20 21 21 21 21 21 21 21 19 19 19 20 20 21 21 22 22
23 22 22 22 22 22 21 20 19 19 18 17 17 17 17 17 17 16 16 15 15 16 15 15 15 16 15 15 16 16 16 17 17 17 17 17 17 16 17 17 17 18 18 19 19 19 20 20 20 20 20 20 20 19 19 18 19 19 19 20 21 21 22
22 22 22 22 22 21 21 20 20 19 18 18 17 17 17 17 17 17 16 16 16 16 16 15 15 16 16 16 16 16 16 16 17 16 16 17 16 16 17 17 17 18 18 19 19 19 19 20 19 19 20 19 19 19 18 18 18 18 19 20 20 21 21
21 22 22 21 21 21 21 20 20 20 19 18 18 18 17 17 17 17 17 17 17 17 16 15 15 16 16 16 17 17 16 16 16 16 16 16 16 17 17 17 17 18 18 19 19 19 19 19 19 20 20 20 20 19 18 17 18 18 18 19 19 20 20
20 20 20 20 20 20 21 20 20 20 19 19 19 18 18 18 17 17 17 17 17 17 16 16 15 15 16 16 17 17 16 16 16 16 16 16 16 17 17 17 17 18 18 19 19 18 18 18 19 20 20 20 20 19 17 17 18 18 18 19 19 19 19
20 20 20 20 20 20 20 20 20 20 20 19 19 18 18 17 17 17 17 17 17 17 16 16 16 16 15 16 16 16 16 16 16 16 16 16 17 17 17 17 17 17 18 18 19 18 18 19 19 20 20 20 20 19 17 17 17 18 18 18 18 19 19
21 21 21 20 20 20 20 20 20 20 19 19 19 18 18 17 17 16 16 16 16 16 16 16 16 16 16 16 16 16 16 16 16 16 16 16 16 17 17 17 17 17 17 18 19 19 19 19 20 20 20 20 20 19 18 17 17 17 17 18 18 18 18
21 21 21 21 20 20 19 19 19 19 18 18 18 18 18 17 16 16 16 16 16 16 16 16 16 16 16 16 16 16 16 16 16 16 16 16 16 16 17 17 17 17 17 18 19 19 19 19 20 20 20 20 20 19 18 18 17 17 17 17 17 17 17
21 21 21 20 19 19 19 19 19 19 18 18 17 17 17 17 16 16 16 15 15 16 16 16 16 16 16 16 16 16 16 16 16 16 16 16 16 16 16 16 17 17 17 18 19 19 19 19 20 20 20 20 19 19 18 18 18 18 17 16 17 17 17
20 20 20 20 19 19 19 19 19 18 18 17 17 17 17 16 16 15 15 15 16 15 15 15 16 16 16 16 16 16 16 16 16 16 16 16 17 17 17 17 17 18 18 18 19 19 19 19 19 20 19 19 19 18 18 18 18 17 16 15 15 16 16
19 19 19 19 19 19 19 19 18 18 17 17 17 17 16 16 16 15 15 16 16 15 15 15 15 16 16 16 16 16 16 16 16 16 17 16 16 17 17 17 18 18 18 17 17 18 18 19 19 18 18 18 18 18 19 19 17 15 14 14 14 14 15
19 19 18 18 18 18 18 18 18 17 17 16 16 16 16 16 15 15 16 16 15 15 15 15 15 16 16 16 17 16 16 16 16 16 16 16 16 15 15 15 16 16 16 15 14 15 16 16 17 16 17 18 17 17 18 18 16 13 12 13 13 13 14
19 18 18 18 18 18 18 18 17 17 17 16 16 16 15 15 15 16 16 15 15 15 15 15 15 15 16 16 16 16 16 16 16 15 15 16 16 15 15 14 14 14 14 13 13 14 14 14 14 14 15 16 16 15 15 15 13 12 12 12 12 13 13
19 19 19 18 18 17 17 17 16 16 16 16 16 16 16 15 15 15 15 15 15 15 14 14 15 16 16 15 15 14 15 15 15 14 14 15 15 15 15 15 14 14 13 13 13 13 13 13 13 13 13 14 14 13 13 12 12 12 12 12 12 13 13
19 19 19 18 18 17 17 16 16 16 16 16 16 16 16 16 16 15 15 15 14 14 14 14 15 15 16 15 14 14 14 14 14 14 14 14 14 14 15 15 15 14 13 13 13 12 12 12 12 12 12 12 13 13 12 12 12 12 12 12 13 13 13

ECMWFFLT1_925_temp_102.txt.gz
Temp
30 32 32 32 32 32 32 32 32 32 31 31 31 31 31 30 29 28 28 27 27 27 26 26 26 26 26 26 25 25 25 25 25 25 25 25 26 26 26 26 26 26 26 26 26 26 26 26 26 26 26 25 25 25 25 25 25 25 25 25 26 26 26
30 31 32 32 32 32 32 32 32 32 31 31 31 31 31 30 29 28 28 27 27 27 26 26 26 26 26 26 26 25 25 25 25 25 25 26 26 26 26 26 26 26 26 26 26 26 26 26 26 26 26 25 25 25 25 25 25 25 25 25 25 25 25
30 31 31 31 32 32 32 32 32 32 31 31 31 31 31 30 29 29 28 27 27 27 27 26 26 26 26 26 26 26 26 26 26 26 26 26 26 26 27 27 27 26 26 26 26 26 26 26 26 26 26 26 26 25 25 25 25 25 25 25 25 26 26
29 30 30 30 31 31 32 31 31 31 31 31 31 31 31 30 29 29 28 27 27 27 27 27 27 27 26 26 26 26 26 26 26 26 26 26 26 26 27 27 27 27 27 27 26 26 26 26 26 26 26 26 26 26 25 25 25 25 25 25 25 26 26
29 30 29 28 29 29 30 31 31 31 31 31 31 31 30 30 29 29 28 28 28 27 27 27 27 27 27 26 27 27 26 27 27 27 27 27 27 27 27 27 27 27 27 27 27 26 26 26 26 26 26 26 26 26 26 25 25 26 26 25 25 26 26
29 28 26 26 27 27 29 31 31 30 30 31 31 31 30 30 29 29 29 28 28 28 28 28 28 28 27 27 27 27 27 27 27 27 27 27 27 27 27 27 27 27 27 27 27 27 27 27 26 26 26 26 26 26 26 26 26 26 26 25 25 26 26
28 27 25 26 27 26 27 30 31 31 30 30 30 30 30 29 29 29 29 29 28 28 28 28 28 28 28 27 27 27 27 27 27 27 27 27 27 27 27 27 27 28 28 28 27 27 27 27 27 27 27 27 27 26 26 26 26 26 26 26 26 26 26
28 27 26 26 26 25 24 26 29 29 28 28 29 29 29 29 29 29 29 29 29 29 29 29 29 28 28 28 27 27 27 27 27 27 27 27 27 27 27 28 28 28 28 28 28 28 27 27 27 27 27 27 27 26 26 26 26 26 26 26 26 26 26
26 25 25 24 24 23 23 23 25 25 24 25 27 27 26 27 27 28 28 28 28 28 29 29 29 29 28 28 28 28 27 27 27 27 27 28 28 28 28 28 28 28 28 28 28 28 28 27 27 28 27 27 27 27 27 26 26 26 26 26 26 26 26
24 24 22 22 22 23 24 24 25 24 24 24 25 24 24 23 23 25 27 28 28 28 28 28 29 29 28 28 28 28 27 27 27 27 27 28 28 28 28 28 28 28 28 28 28 28 28 28 28 28 27 27 27 27 27 27 26 26 26 26 26 26 26
23 23 22 22 23 23 23 23 24 23 23 24 24 24 24 24 23 24 26 27 27 27 26 27 28 28 28 28 28 28 28 27 27 27 27 28 28 28 29 29 29 29 29 28 29 29 28 28 28 28 27 27 27 27 26 27 26 26 26 27 26 26 26
23 22 22 22 22 22 22 22 23 23 23 23 24 24 24 25 24 25 26 26 26 26 26 26 27 28 28 28 28 28 28 28 27 28 28 28 28 28 28 29 29 29 29 29 29 29 29 29 28 28 27 27 27 27 27 27 26 27 27 27 27 26 26
23 22 22 22 22 21 22 22 22 23 23 23 24 24 25 25 25 26 26 26 26 26 26 26 25 26 27 27 27 27 27 28 28 28 28 28 28 27 28 28 29 29 30 29 29 29 29 29 29 28 27 27 26 27 27 27 27 27 27 27 27 27 26
24 23 22 22 23 22 22 22 22 22 23 24 24 25 25 25 25 25 25 25 26 26 26 25 24 25 26 26 26 26 26 27 27 27 27 27 27 27 27 27 27 28 29 29 29 29 29 29 29 29 28 27 27 27 27 27 26 26 26 26 27 27 27
25 25 24 23 24 23 23 23 23 22 22 23 24 24 25 25 25 25 25 25 26 26 26 26 25 25 25 25 26 26 26 26 27 27 27 27 27 27 26 26 26 27 27 28 28 29 29 29 29 29 29 28 27 27 27 27 27 26 26 26 26 26 27
26 26 26 25 25 24 24 24 24 24 23 23 24 23 23 24 24 24 24 25 25 25 26 25 25 25 25 25 25 25 25 26 26 26 26 26 26 25 25 25 25 26 26 26 27 28 28 28 28 29 29 29 28 27 27 27 27 27 27 27 27 26 27
25 26 26 25 25 25 25 24 24 24 23 23 23 23 23 23 23 22 23 23 24 24 24 24 24 25 25 25 25 25 25 25 25 25 24 24 24 24 24 24 24 25 25 25 26 26 27 27 27 27 28 28 29 28 27 26 27 28 28 27 27 27 27
22 22 23 24 25 25 25 24 24 24 24 23 23 23 22 22 22 22 22 22 22 23 23 23 23 23 24 24 24 24 24 24 24 24 24 24 23 23 23 24 24 24 24 24 25 25 25 26 26 26 26 26 26 26 25 25 26 27 27 27 27 27 27
20 21 23 23 23 24 23 23 23 23 23 22 22 21 21 20 20 20 21 21 21 22 22 22 22 22 22 22 21 22 22 22 23 23 23 23 23 23 23 23 24 24 24 24 24 24 25 25 25 25 25 25 25 25 24 24 25 25 26 26 27 26 26
20 22 23 23 22 22 22 22 22 22 22 22 21 20 20 19 19 20 20 20 20 20 20 20 20 20 21 21 21 21 22 22 22 22 22 22 22 22 22 23 23 23 23 24 24 24 24 24 24 24 24 24 25 25 24 24 24 25 25 25 25 26 26
22 22 22 22 22 22 22 21 21 21 21 21 20 20 20 19 19 19 19 19 19 18 18 18 18 19 19 20 20 21 21 21 21 21 21 21 21 22 21 21 22 22 22 23 23 23 23 23 23 23 24 24 23 23 23 23 24 24 24 24 25 25 25
22 22 22 22 22 22 21 21 20 20 20 19 19 19 19 19 18 18 18 18 18 17 18 18 18 18 18 18 19 19 19 20 20 20 20 20 20 20 20 21 21 21 21 21 21 22 22 22 22 23 23 24 23 22 22 23 23 23 23 23 24 24 24
22 22 22 22 22 21 21 20 20 19 19 19 18 18 18 18 18 17 17 17 17 17 17 17 17 17 18 18 18 18 18 19 19 19 19 19 19 19 19 20 20 20 20 20 21 21 21 21 21 22 23 23 22 21 21 21 22 22 22 22 23 23 23
22 22 22 21 21 20 20 20 19 19 18 19 18 18 18 18 17 17 16 16 16 16 16 16 17 17 17 17 18 18 18 18 18 19 19 19 19 18 19 19 19 20 20 20 20 20 20 21 21 22 22 22 21 20 20 20 21 21 21 22 22 22 22
22 21 21 21 20 20 19 19 19 19 19 19 19 19 19 18 18 17 17 17 16 16 16 16 16 17 17 17 17 18 18 18 18 18 18 18 18 18 19 19 19 20 20 20 20 20 20 20 20 21 21 20 19 19 19 19 20 20 20 21 21 22 22
21 21 21 21 20 20 19 19 19 20 20 20 20 20 19 19 19 18 18 18 17 17 16 16 16 17 16 16 17 17 17 18 18 18 18 18 19 19 19 19 19 19 19 19 19 19 20 20 19 19 19 19 18 18 19 19 20 20 20 20 21 21 21
22 22 21 21 20 20 20 20 20 20 20 20 20 20 20 20 19 19 19 18 18 17 17 16 17 17 17 17 17 17 17 17 17 18 18 18 19 19 19 19 19 19 19 19 19 19 19 19 19 18 18 18 18 18 18 19 19 19 19 20 20 21 21
23 22 21 21 21 21 21 21 21 20 20 20 20 20 20 19 19 19 19 18 18 18 17 17 17 17 17 17 17 17 17 17 17 17 18 18 19 19 19 20 20 20 19 19 19 19 19 19 19 19 18 18 18 18 18 18 19 19 19 19 20 20 20
24 23 22 22 22 22 22 21 21 21 21 21 21 20 20 19 19 19 19 18 18 18 18 18 18 17 17 17 17 17 17 17 17 17 17 18 18 19 19 20 20 20 19 20 20 20 19 19 19 19 18 18 18 19 19 19 19 18 18 19 19 19 20
24 23 23 23 23 22 22 22 22 22 21 21 20 20 19 19 19 18 18 18 18 18 18 18 18 18 18 18 18 18 18 17 17 18 18 18 18 18 19 19 19 20 19 20 20 20 20 20 20 20 19 19 18 18 19 19 19 18 18 18 18 19 19
24 24 24 24 23 23 22 22 22 21 21 20 19 19 19 18 18 18 18 18 18 18 18 18 18 18 18 18 18 18 18 18 18 18 18 18 19 19 19 19 19 19 19 19 20 20 20 20 21 21 21 20 19 18 19 19 18 18 18 18 18 18 18
24 24 24 24 23 23 22 22 22 21 21 20 19 19 19 18 18 18 18 18 18 18 18 18 18 18 18 18 18 18 19 19 19 19 19 19 19 19 19 19 20 20 20 20 19 19 19 20 20 20 20 21 20 19 19 18 18 17 17 17 17 18 18
23 23 23 23 23 23 22 22 22 21 21 20 20 19 19 18 18 18 18 18 18 18 18 18 18 18 18 18 18 18 19 19 19 19 20 19 19 19 19 19 19 19 19 19 19 18 18 18 19 19 19 19 20 20 19 18 18 17 17 17 18 18 18
23 23 23 22 23 22 22 22 21 21 20 20 20 19 19 18 18 18 18 19 18 18 18 18 18 18 19 19 19 19 19 20 19 20 20 20 19 19 18 18 18 18 18 17 17 18 18 17 17 18 17 18 19 19 18 17 17 17 17 17 17 17 18
23 23 22 22 22 22 22 21 21 20 20 19 19 19 18 18 18 18 18 18 18 18 18 18 19 19 20 20 20 20 20 20 20 19 20 20 19 19 18 18 17 17 17 17 17 17 17 17 17 17 17 17 18 18 16 16 16 16 16 16 16 17 17
22 22 22 22 22 21 21 21 20 20 20 19 19 19 18 18 18 18 19 18 18 18 18 18 19 19 20 20 19 19 19 19 19 18 18 18 18 18 18 17 17 17 17 17 17 17 17 17 17 17 17 17 17 17 16 16 16 16 15 16 16 16 16
22 22 22 21 21 21 21 20 20 20 19 19 19 18 18 18 18 19 19 18 18 18 18 18 18 19 19 19 18 18 18 18 18 18 17 17 17 17 17 17 17 17 17 17 17 17 17 17 17 17 16 15 16 16 15 15 16 16 15 15 15 16 16
22 22 22 21 21 21 20 20 20 19 19 19 19 19 19 19 19 19 18 18 18 18 17 18 18 19 19 18 17 17 18 18 17 17 17 17 17 17 17 17 17 17 16 16 17 17 17 17 17 17 16 15 15 15 15 15 15 15 15 15 15 15 16

ECMWFFLT1_925_temp_105.txt.gz
Temp
28 29 30 30 30 30 30 29 30 30 30 30 30 30 29 28 27 27 26 26 26 26 25 25 25 25 25 25 25 25 25 25 25 25 25 25 25 26 25 25 25 25 25 25 25 25 25 25 25 25 25 25 25 25 25 25 25 25 25 25 25 25 25
28 29 30 30 30 30 29 29 30 30 30 30 30 30 29 28 27 27 26 26 26 26 25 25 25 25 25 25 25 25 25 25 25 25 25 25 25 25 26 26 26 25 25 25 25 25 26 25 25 25 25 25 25 25 25 25 25 25 25 25 25 25 26
28 29 30 30 30 30 29 29 30 30 30 30 30 30 29 28 27 27 26 26 26 26 25 25 25 25 25 25 25 25 25 25 25 25 26 26 26 25 26 26 26 26 26 26 26 26 26 26 25 26 26 25 25 25 25 25 25 25 25 25 25 25 26
28 29 29 30 30 30 29 29 29 29 30 30 30 30 29 27 27 27 26 26 26 26 26 25 25 25 25 25 25 25 25 25 25 26 26 26 26 26 26 26 26 26 26 26 26 26 26 26 25 26 25 25 25 25 25 25 25 25 25 25 25 25 25
28 29 29 29 29 29 29 29 29 29 29 30 30 30 29 28 27 27 26 26 26 26 26 26 25 25 25 25 25 25 25 25 25 26 26 26 26 26 26 26 26 26 26 26 26 26 26 26 26 26 25 25 25 25 25 25 25 25 25 25 25 25 25
28 28 28 28 27 26 26 26 28 28 29 30 30 30 29 28 27 27 27 26 26 26 26 26 26 26 25 25 25 25 25 25 25 26 26 26 26 26 26 26 26 26 26 26 26 26 26 26 26 26 26 26 25 25 25 25 25 25 25 25 25 25 25
28 26 25 25 25 24 23 23 25 26 26 28 28 28 28 28 27 27 27 26 26 26 26 26 26 26 26 26 26 26 26 26 26 26 26 26 26 26 26 26 26 26 27 27 26 26 26 26 26 26 26 26 26 26 26 25 25 25 25 25 25 25 25
26 24 23 24 24 24 23 22 23 25 25 26 26 27 26 27 27 27 27 27 26 26 26 26 26 26 26 26 26 26 26 26 26 26 26 26 26 27 27 27 27 27 27 27 27 27 27 26 26 26 26 26 26 26 26 26 26 25 25 25 25 25 25
23 24 24 24 23 23 22 21 23 24 24 25 26 26 26 26 27 27 27 27 27 27 27 27 27 27 27 26 26 27 26 26 26 26 26 27 27 27 27 27 27 27 27 27 27 27 27 27 27 27 27 26 26 26 26 26 26 26 25 26 26 26 25
23 23 23 23 22 22 22 22 23 23 23 24 25 26 26 26 27 27 27 27 27 27 27 27 27 27 27 27 27 27 27 27 27 26 27 27 27 27 27 27 27 27 27 28 27 27 27 27 27 27 27 27 27 27 26 26 26 26 26 26 26 26 26
23 23 22 22 22 22 22 22 22 22 23 23 24 25 26 26 27 27 27 27 28 28 28 27 28 28 27 27 27 27 27 27 27 27 27 27 27 27 27 28 28 28 28 28 28 28 28 28 27 27 27 27 27 27 27 26 26 26 26 26 26 26 26
22 22 22 22 22 23 23 22 22 22 23 23 23 25 25 26 27 27 27 27 28 28 28 28 27 27 28 28 27 27 27 27 27 27 27 27 27 27 28 28 28 28 28 28 28 28 28 28 28 28 27 27 27 27 27 26 26 26 26 26 26 26 26
22 22 22 22 22 22 22 22 22 22 22 23 23 24 24 25 26 26 26 26 27 28 28 28 27 27 28 28 28 27 27 27 27 27 27 27 27 27 28 28 28 28 28 28 28 28 28 28 28 28 28 27 27 27 27 27 26 26 26 26 26 26 26
21 21 21 21 22 22 22 22 22 22 22 22 23 24 24 24 24 25 25 26 27 27 27 28 27 27 27 28 28 28 27 27 27 27 27 27 27 27 27 28 28 27 27 27 28 28 28 29 29 28 28 28 27 27 27 26 26 26 26 26 26 26 26
21 21 21 21 21 21 22 21 21 22 21 22 23 24 24 24 24 24 25 25 25 25 25 26 27 27 27 27 26 26 26 26 26 26 27 27 27 27 27 27 27 27 27 27 27 27 28 28 28 28 28 28 27 27 27 26 26 26 26 26 26 26 26
21 21 21 21 21 21 21 21 21 21 21 22 22 23 23 23 23 24 24 23 23 23 24 24 25 25 25 24 23 23 24 24 24 24 25 25 26 26 27 27 27 27 26 26 26 27 27 27 27 27 27 27 27 27 26 26 26 26 26 26 26 26 26
21 21 21 21 21 21 21 21 21 21 21 21 21 21 21 21 21 22 22 22 21 22 22 22 22 22 22 22 22 22 22 22 24 24 24 24 24 25 25 25 26 26 26 26 26 26 26 27 27 27 27 26 26 26 26 25 26 26 26 26 26 26 26
21 21 21 21 21 21 21 21 21 20 20 20 20 20 20 20 20 21 21 21 21 21 21 21 21 21 21 22 23 22 20 21 23 23 24 24 24 24 24 24 24 25 25 25 25 25 26 26 26 26 26 26 26 26 26 26 26 26 26 26 26 26 26
21 21 21 21 21 21 20 20 20 20 20 19 20 20 20 20 20 20 20 21 21 21 21 21 20 20 20 21 22 22 21 21 22 23 22 22 23 23 23 23 24 24 24 24 24 25 25 25 25 25 25 25 25 25 25 26 26 25 26 26 25 25 26
20 21 21 20 20 20 20 20 20 20 20 19 19 19 19 20 20 20 20 20 21 21 21 21 20 20 20 21 21 22 22 22 23 23 22 22 22 23 23 23 23 23 23 24 24 24 24 24 24 25 24 24 24 24 25 25 25 25 25 25 25 25 25
20 20 20 20 20 20 20 20 19 19 19 19 19 19 19 19 19 20 20 20 20 20 20 20 20 19 19 20 20 21 21 21 22 22 22 22 22 22 22 22 22 22 22 23 23 23 23 24 24 24 24 23 23 23 24 24 25 25 25 25 25 24 24
20 20 20 20 19 19 19 19 19 19 19 19 19 19 18 19 19 20 19 19 19 19 19 19 19 19 19 19 19 20 20 20 20 21 21 21 21 21 21 21 21 21 22 22 22 22 22 23 23 23 23 24 23 22 23 23 24 24 24 24 25 24 24
20 20 20 20 19 19 19 19 19 19 19 19 18 18 18 19 19 19 19 18 18 18 18 18 18 18 18 18 18 19 19 19 20 20 20 20 20 20 20 20 21 21 21 21 21 21 21 22 21 21 22 22 22 21 22 22 22 22 23 23 24 24 23
19 20 20 20 20 19 19 19 19 18 18 18 18 17 17 18 18 18 18 17 17 17 17 17 17 17 17 18 18 18 18 18 19 19 19 19 20 20 20 20 20 20 20 20 20 20 20 20 21 20 20 20 20 20 21 21 21 21 21 22 23 23 23
19 19 19 19 19 19 19 19 19 18 18 18 17 17 17 17 17 17 16 16 17 17 17 16 16 17 17 17 18 18 18 18 18 18 18 19 19 19 20 20 20 19 19 19 19 19 20 20 20 20 19 19 19 20 20 20 21 21 21 21 22 22 22
19 20 20 19 19 19 19 19 19 19 18 18 18 18 18 17 17 17 16 16 16 16 16 16 17 17 17 17 18 18 18 18 18 18 18 18 18 19 19 19 19 19 19 19 19 19 19 20 20 19 18 18 18 19 19 19 20 20 20 21 21 21 22
20 20 20 19 19 19 19 19 19 19 19 19 19 18 18 18 17 17 17 17 17 16 17 17 17 17 17 18 18 18 18 18 18 18 18 18 18 18 18 18 18 19 19 19 19 19 19 19 19 19 18 17 17 17 18 18 19 18 18 19 20 20 21
21 20 20 20 20 20 20 19 20 20 20 19 19 19 19 18 18 17 17 17 17 17 17 17 17 18 18 18 18 18 18 18 18 18 18 18 18 18 18 18 18 19 19 19 19 19 19 19 19 19 18 17 17 17 17 17 17 17 17 17 18 19 19
21 21 20 20 20 20 20 20 20 20 20 19 19 19 19 18 18 18 18 17 17 17 17 17 17 17 18 18 18 18 18 18 18 18 18 18 19 19 19 19 19 19 19 19 19 19 19 18 19 18 18 17 16 16 17 17 16 16 16 17 17 18 18
21 21 21 21 21 21 21 20 20 20 19 19 19 19 18 18 18 18 18 18 18 18 18 18 18 18 18 18 18 18 18 18 18 18 18 18 19 19 19 19 19 19 19 19 19 19 19 18 18 18 18 17 16 16 16 16 17 17 17 17 18 18 18
21 21 22 22 22 21 21 20 20 19 19 19 18 18 18 18 18 18 18 18 18 18 18 18 18 18 18 18 18 18 18 18 19 19 19 19 19 19 19 19 19 19 19 19 19 19 19 18 18 18 18 17 17 16 16 17 17 18 18 18 19 19 19
22 22 22 22 22 21 21 20 20 19 18 18 18 18 18 18 18 18 18 17 18 18 18 18 18 18 18 18 18 18 18 19 19 19 19 19 19 19 19 19 19 19 19 19 19 18 18 18 18 18 18 17 17 16 16 17 17 18 18 18 19 19 19
22 22 22 22 22 21 21 20 20 19 19 18 18 18 18 18 18 18 18 18 18 18 18 18 18 18 18 19 19 19 19 19 19 19 19 18 18 18 18 18 18 19 19 19 18 18 18 17 17 18 17 17 17 16 16 17 17 17 18 18 18 18 18
22 22 22 22 22 21 21 21 20 20 19 19 18 18 18 18 18 18 18 18 18 18 18 18 18 19 19 19 19 19 19 19 19 19 18 18 18 18 18 18 18 18 18 18 17 17 18 17 17 17 16 16 16 16 16 17 17 17 17 17 17 18 18
22 22 22 21 21 21 21 20 20 19 19 19 18 18 18 18 18 18 18 18 18 18 18 18 19 19 19 19 19 19 19 19 19 18 18 18 18 18 17 17 17 18 18 18 18 18 17 17 17 17 16 17 17 17 17 17 17 17 17 16 17 17 17
22 22 21 21 21 21 21 20 20 19 19 18 18 18 18 18 18 18 18 18 18 18 18 18 19 19 19 19 19 18 18 19 18 18 17 17 17 17 17 17 17 17 17 18 18 18 18 18 18 17 17 17 17 17 17 17 17 17 16 16 16 17 17
21 22 21 21 21 21 20 20 20 19 19 18 18 18 18 18 18 18 18 18 18 18 18 18 18 19 19 19 19 18 18 18 18 18 17 17 17 17 17 17 17 17 17 17 17 17 17 17 17 17 17 17 17 17 17 17 16 16 16 17 17 17 17
21 21 21 21 21 20 20 20 19 19 19 18 18 18 18 18 18 18 18 18 18 18 18 18 18 18 18 18 18 18 17 17 17 17 17 17 17 17 17 17 17 16 17 16 16 17 17 16 16 17 17 17 17 17 17 17 17 17 17 17 17 17 17

ECMWFFLT1_925_temp_108.txt.gz
Temp
27 27 28 28 27 27 27 27 27 28 27 27 27 27 27 26 26 25 25 25 25 25 25 25 25 24 24 24 25 25 25 25 25 25 25 25 26 25 25 25 25 25 25 25 25 25 25 25 25 25 25 25 25 25 25 25 25 25 25 25 25 25 25
27 27 27 28 27 27 27 27 28 28 27 27 27 27 26 26 26 25 25 25 25 25 25 25 25 25 24 24 25 25 25 25 25 25 25 25 25 25 25 25 25 25 25 25 25 25 25 25 25 25 25 25 25 25 25 25 25 25 25 25 25 25 25
27 27 27 28 27 27 27 27 27 28 28 27 27 27 26 26 26 25 25 25 25 25 25 25 25 25 24 24 25 25 25 25 25 25 25 25 25 25 25 25 25 25 25 25 25 25 25 25 25 25 25 25 25 25 25 25 25 25 25 25 25 25 25
27 27 27 28 28 27 27 27 27 28 28 28 28 27 26 26 26 26 26 25 25 25 25 25 25 25 24 24 24 25 25 25 25 25 25 25 25 25 25 25 25 25 25 25 25 25 25 25 25 25 25 25 25 25 25 25 25 25 25 24 25 25 25
27 27 27 28 28 27 26 27 27 28 28 28 28 27 26 26 26 26 26 25 25 25 25 25 25 25 25 24 24 25 25 25 25 25 25 25 25 25 25 25 25 25 25 25 26 25 25 25 25 25 25 25 25 25 25 25 25 25 25 25 25 25 25
27 27 27 27 27 27 26 26 27 28 28 28 27 27 26 26 26 26 25 25 25 25 25 25 25 25 25 24 24 25 25 25 25 25 25 25 25 25 25 25 25 25 26 26 26 26 26 25 25 25 25 25 25 25 25 25 25 25 25 25 25 25 25
27 26 26 25 25 26 25 25 26 27 28 28 27 27 26 26 26 26 25 25 25 25 25 25 25 25 25 25 24 25 25 25 25 25 25 25 25 25 25 25 26 26 26 26 26 26 26 26 26 26 25 25 25 25 25 25 25 25 25 25 25 25 25
25 24 24 25 25 25 24 23 25 26 27 27 26 26 26 26 26 25 25 25 25 25 25 25 25 25 25 25 25 25 25 25 25 25 25 25 25 25 25 25 26 26 26 26 26 26 26 26 26 26 26 26 25 25 25 25 25 25 25 25 25 25 25
23 23 23 24 24 23 22 22 24 25 26 26 26 26 26 26 26 25 25 25 25 25 25 25 25 25 25 25 25 25 25 25 25 25 25 25 25 25 26 26 26 26 26 26 26 26 26 26 26 26 26 26 26 26 26 26 25 25 25 25 25 25 25
23 24 24 23 23 22 21 22 23 24 24 25 25 25 25 25 25 25 25 25 25 25 25 25 25 25 25 25 25 25 25 25 25 25 25 25 25 26 26 26 26 26 26 26 26 26 26 26 26 26 26 26 26 26 26 26 26 26 26 25 25 25 25
22 23 23 23 22 21 21 21 22 22 23 24 25 25 25 25 25 25 25 25 25 25 25 25 25 25 25 25 25 25 25 25 25 25 26 26 26 26 26 26 26 26 26 27 27 27 27 27 26 26 26 26 26 26 26 26 26 26 26 26 26 25 25
22 22 21 22 22 22 21 21 21 21 22 24 25 25 25 25 25 25 25 25 26 26 25 25 26 26 25 25 25 25 25 26 26 26 26 26 26 26 26 26 27 27 27 27 27 27 27 27 27 27 27 26 26 26 26 26 26 26 26 26 26 25 26
21 21 21 21 21 21 22 21 21 21 21 22 23 24 24 25 25 25 25 25 25 26 25 25 25 25 26 26 26 26 26 26 26 26 26 26 26 26 26 27 27 27 27 27 27 27 27 27 27 27 27 27 27 27 27 27 26 26 26 26 26 26 26
21 21 21 21 21 21 22 22 21 21 21 21 21 21 22 22 22 23 23 23 23 23 23 24 24 24 24 26 26 25 26 26 26 26 26 26 26 26 26 27 27 27 27 27 27 27 27 27 27 27 27 27 27 27 27 27 26 26 26 26 26 26 26
21 21 21 21 21 21 21 21 21 21 21 22 22 21 20 20 20 20 21 20 20 21 21 23 24 23 23 24 25 25 25 25 26 26 26 26 26 26 27 27 27 27 27 27 27 27 27 27 27 27 27 27 27 27 27 26 26 26 26 26 26 26 26
21 21 21 21 21 21 21 21 21 20 20 21 21 21 22 22 22 22 21 21 22 22 22 22 23 22 22 22 23 24 25 25 25 25 26 26 26 26 27 27 27 26 26 27 27 26 26 26 27 27 28 27 27 27 26 26 26 26 26 26 26 26 26
21 21 21 20 20 21 21 21 21 20 20 20 21 21 22 22 22 22 21 21 22 23 23 23 22 21 22 23 23 24 25 25 25 25 25 26 26 26 26 26 27 27 26 26 26 26 26 26 26 27 27 27 27 27 26 26 26 26 26 26 26 26 26
21 21 20 20 20 20 20 20 20 20 20 20 20 20 21 21 21 20 20 20 21 21 22 23 22 22 22 23 23 24 24 24 24 24 24 25 25 25 25 25 26 26 26 26 25 25 25 25 25 26 26 26 27 26 26 26 26 26 26 26 26 26 26
21 20 20 20 20 20 20 19 19 19 19 19 19 19 20 21 20 20 20 20 21 21 22 22 22 22 22 23 23 23 23 23 24 24 24 24 24 24 24 24 24 24 24 25 24 24 24 24 24 25 25 25 26 26 26 26 26 26 25 25 26 26 26
20 20 20 20 20 19 19 19 19 18 18 18 19 19 20 21 20 20 20 20 21 22 23 23 22 21 22 23 23 22 23 23 23 24 23 23 23 23 24 23 23 23 23 23 24 24 24 24 24 24 24 24 25 25 26 26 26 25 25 25 25 26 26
20 19 19 19 19 19 18 18 18 18 18 18 18 19 19 19 19 20 20 20 20 21 22 23 22 21 22 23 23 22 22 23 23 23 23 22 22 23 23 23 23 23 23 23 23 23 23 23 23 23 23 23 24 24 24 25 25 25 25 25 25 24 25
19 18 18 18 18 18 18 18 18 18 18 18 18 18 17 17 18 19 20 20 20 20 20 21 20 19 20 21 21 21 21 21 22 22 22 22 22 22 21 21 21 22 22 22 22 22 22 22 22 22 22 22 23 23 23 23 24 24 24 24 24 24 24
18 18 18 18 18 18 18 18 18 17 17 17 17 17 17 17 17 18 18 19 19 19 19 19 18 18 19 19 19 20 20 20 20 21 21 21 21 21 21 20 20 21 21 21 21 22 22 22 21 21 21 21 22 22 22 22 22 23 23 23 23 23 23
18 18 18 18 18 18 18 17 17 17 17 17 17 17 17 17 17 17 17 17 17 18 18 18 17 18 18 18 18 19 19 19 20 20 20 20 20 20 20 20 20 20 21 21 21 21 21 20 20 20 21 21 21 21 21 21 21 21 22 22 23 22 22
18 18 18 18 18 18 17 17 17 17 17 17 17 17 17 17 17 17 16 16 17 17 17 17 17 18 18 18 18 18 19 19 19 19 19 20 20 20 19 19 20 20 20 20 20 20 20 20 19 20 21 21 20 19 19 19 19 20 20 21 22 22 21
17 18 18 18 18 18 18 18 18 18 18 17 17 17 17 17 17 16 16 16 17 17 17 17 17 18 18 18 18 18 18 18 18 18 18 19 19 18 18 19 19 19 19 19 19 19 19 19 19 19 19 19 18 18 18 18 18 18 19 20 21 21 21
18 18 18 18 18 18 18 18 18 18 18 18 17 17 17 17 17 17 17 17 17 17 17 17 17 18 18 18 18 18 18 18 18 18 18 18 18 18 18 19 19 19 19 19 18 18 18 18 18 18 17 17 16 17 17 16 16 17 17 18 19 20 20
19 19 19 19 19 19 19 19 18 18 18 18 18 18 18 18 17 17 17 17 17 17 17 17 17 18 18 18 18 18 18 18 18 18 18 18 19 19 19 18 18 18 18 18 18 18 18 17 17 17 16 16 16 16 16 16 16 16 16 17 18 18 18
19 19 19 19 19 19 19 19 19 18 18 18 18 18 18 18 17 17 17 17 17 17 17 18 18 18 18 18 18 18 18 18 18 18 18 18 19 19 19 18 18 18 18 18 18 18 18 17 17 17 16 16 16 16 16 16 16 16 16 17 17 17 17
19 19 19 19 19 19 19 19 18 18 18 18 18 18 18 18 17 17 17 17 17 17 17 18 18 18 18 18 18 18 18 18 18 18 18 18 18 19 19 18 18 18 18 18 18 18 17 17 16 16 16 16 15 15 15 16 16 16 16 16 16 17 17
19 19 20 19 19 19 19 19 18 18 18 18 18 18 18 18 17 17 17 17 17 18 18 18 18 18 18 18 18 19 19 19 19 19 19 18 19 19 19 19 18 18 18 18 18 17 17 17 16 16 16 15 15 15 15 16 16 16 16 16 16 16 16
20 20 19 19 19 19 19 19 18 18 18 18 18 18 18 17 17 17 17 17 18 18 18 18 18 18 18 18 18 19 19 19 19 19 18 18 18 18 19 19 19 18 18 18 18 18 17 17 17 16 16 15 15 15 15 16 16 16 16 16 16 16 16
19 20 19 19 19 19 19 18 18 18 18 17 17 18 18 17 17 17 17 17 18 18 18 18 18 18 18 18 18 18 19 19 19 19 18 18 18 18 18 18 18 18 18 18 18 18 17 17 17 16 16 15 15 15 16 16 16 16 16 17 17 17 17
19 20 20 19 19 19 19 18 18 18 18 17 17 17 18 18 18 17 17 18 18 18 18 18 18 18 18 18 18 18 18 19 19 18 18 18 18 18 18 18 18 18 18 18 18 18 18 17 17 16 16 16 16 16 16 16 17 17 17 17 18 18 18
20 20 20 19 20 20 19 19 18 18 18 18 18 18 18 17 17 18 18 18 18 18 18 18 18 18 18 18 18 18 18 18 18 18 18 18 18 18 18 17 18 18 18 18 17 17 17 17 17 17 17 17 17 17 17 17 17 17 17 17 17 18 18
19 20 19 19 20 20 19 19 19 18 18 18 18 18 17 17 18 18 18 18 18 18 18 18 18 18 18 18 18 18 18 18 18 18 18 17 17 17 17 17 17 17 17 17 17 17 17 17 17 17 17 16 17 16 16 16 16 16 16 16 17 17 17
20 19 19 19 19 19 19 19 19 18 18 18 18 18 18 18 18 18 18 18 18 18 18 18 18 18 18 18 18 18 18 18 17 17 17 17 17 17 17 17 17 17 17 17 17 17 17 17 17 16 16 16 16 16 16 16 16 16 16 16 16 16 16
20 20 20 20 20 20 19 19 19 19 18 18 18 18 18 18 18 18 18 18 18 18 18 18 18 18 18 18 18 18 18 18 17 17 17 17 17 17 17 17 16 17 17 16 16 16 16 16 16 16 16 16 16 16 16 16 16 16 16 16 16 16 16

ECMWFFLT1_925_temp_111.txt.gz
Temp
25 25 26 26 26 26 26 25 26 26 26 25 25 25 25 25 25 25 25 25 25 25 24 24 24 25 25 25 25 25 25 25 25 25 25 25 25 25 25 25 25 25 25 25 24 25 25 24 24 24 24 24 24 24 24 24 24 24 24 25 25 25 25
25 25 26 26 26 26 26 26 26 26 26 26 26 26 25 25 25 25 25 25 25 25 25 24 24 24 25 25 25 24 24 25 25 25 25 25 25 25 25 25 25 25 25 25 25 25 25 24 24 24 24 24 24 24 24 24 24 24 24 24 24 25 25
25 25 25 26 26 26 25 25 26 26 26 26 26 26 25 25 25 25 25 25 24 24 24 24 24 24 24 24 24 24 24 24 25 25 25 25 25 25 25 25 25 25 25 25 25 25 25 25 25 24 24 24 24 24 24 24 24 24 24 24 24 24 24
25 25 25 25 26 26 25 25 26 26 26 26 26 26 26 25 25 25 25 25 24 24 24 24 24 24 24 24 24 24 24 24 24 25 25 25 25 25 25 25 25 25 25 25 25 25 25 25 25 25 25 25 25 24 24 24 24 24 24 24 24 24 24
26 26 25 25 25 26 25 25 25 26 26 26 26 26 26 26 25 25 25 25 25 24 25 25 24 24 24 24 24 24 24 24 25 25 25 25 25 25 25 25 25 25 25 25 25 25 25 25 25 25 25 25 25 25 24 25 24 24 24 24 24 24 24
26 26 25 25 25 25 25 25 26 26 26 26 26 26 26 25 25 25 25 25 25 25 24 24 24 24 24 24 24 24 24 24 25 25 25 25 25 25 25 25 25 25 25 25 25 25 25 25 25 25 25 25 25 25 25 25 24 24 24 24 24 24 24
26 25 25 25 25 25 25 25 26 26 26 26 26 26 26 25 25 25 25 25 25 24 24 24 24 24 24 24 24 24 24 24 24 25 25 25 25 25 25 25 25 25 25 25 25 25 25 25 25 25 25 25 25 25 25 25 25 24 24 24 24 24 24
26 25 25 25 25 24 24 24 25 26 26 26 26 26 25 25 25 25 24 24 24 24 24 24 24 24 24 24 24 24 24 24 24 24 25 25 25 25 25 25 25 25 25 25 25 25 25 25 25 25 25 25 25 25 25 25 25 25 24 24 24 24 24
25 25 25 24 23 22 21 22 24 24 25 25 25 26 25 25 25 25 24 24 24 24 24 24 24 24 24 24 24 24 24 24 24 24 24 25 25 25 25 25 25 25 25 25 25 25 25 25 26 25 25 25 25 25 25 25 25 25 25 25 25 25 25
24 24 23 22 22 21 21 22 23 23 23 23 23 24 25 25 25 25 24 24 24 24 24 24 24 24 24 24 24 24 24 24 24 24 24 25 25 25 25 25 25 25 25 25 25 26 26 26 26 26 25 25 25 25 25 25 25 25 25 25 25 25 25
23 23 22 21 22 23 23 23 23 22 23 23 22 22 22 23 24 25 24 24 24 24 24 24 24 24 24 24 24 24 24 24 24 24 25 25 25 25 25 25 25 25 25 25 25 26 26 26 26 26 26 26 26 26 26 26 26 25 25 25 25 25 25
23 22 22 21 22 23 24 23 22 22 23 23 22 22 21 21 22 23 23 24 24 24 24 24 24 24 24 24 24 24 24 24 24 25 25 25 25 25 25 25 25 25 25 25 25 26 26 26 26 26 26 26 26 26 26 26 26 26 26 26 26 26 25
22 22 21 21 22 22 23 23 22 21 22 22 22 22 22 21 21 20 21 22 23 23 23 23 23 23 24 24 24 24 24 24 25 25 25 25 25 25 25 25 25 25 25 26 26 26 26 26 26 26 26 26 26 26 26 26 26 26 26 26 26 26 25
22 22 21 21 21 21 22 22 22 21 21 21 21 21 22 22 21 21 21 22 23 23 24 24 23 23 23 24 24 24 24 24 25 25 25 25 25 25 25 25 25 26 26 26 26 26 26 26 26 27 27 26 26 26 26 26 26 26 26 26 26 26 25
21 21 21 21 21 21 21 21 21 21 21 20 20 20 21 21 21 22 22 23 24 24 23 24 24 24 23 24 24 24 24 24 24 25 25 25 25 25 25 25 26 26 26 26 26 26 26 27 27 27 27 27 27 27 26 26 26 26 26 26 26 26 25
21 21 21 21 21 21 21 21 21 21 21 20 20 20 20 21 22 22 22 23 24 24 24 24 24 24 24 24 24 24 24 24 24 24 24 25 25 25 25 25 25 26 26 26 26 26 26 26 26 26 26 27 27 27 27 27 26 26 26 26 26 26 26
21 21 21 21 21 21 21 21 20 20 20 20 20 20 20 20 21 22 22 22 23 24 24 23 23 23 23 24 24 24 24 24 24 24 24 24 25 25 25 25 25 25 25 26 26 26 26 26 26 26 26 27 27 27 27 27 26 26 26 26 26 26 26
21 21 21 21 21 21 21 20 20 20 20 19 19 20 20 20 20 21 21 21 22 23 23 22 23 23 23 24 24 24 24 24 24 24 24 25 25 25 25 25 25 25 25 25 25 25 26 26 26 26 26 26 26 26 26 26 26 26 26 26 26 26 25
21 20 20 20 20 20 20 19 19 19 19 19 19 19 20 20 20 20 20 21 21 22 22 22 23 23 23 24 24 23 23 23 23 24 24 24 24 24 24 24 24 24 24 24 24 24 25 25 25 25 25 25 25 25 25 25 25 25 25 25 25 25 25
20 20 19 19 19 19 19 18 18 18 18 18 19 19 19 20 20 20 20 20 20 20 21 21 22 22 22 23 23 22 22 23 23 23 23 24 24 24 24 23 23 23 23 23 23 23 23 24 24 24 24 24 24 25 25 25 25 25 25 25 25 25 25
19 19 18 18 18 18 18 17 17 17 17 18 19 19 19 19 20 20 20 20 20 20 20 21 21 21 21 22 22 22 22 22 23 23 23 23 23 23 23 23 23 23 23 23 23 23 23 23 23 23 24 24 24 24 24 24 25 25 25 25 25 25 25
18 18 18 17 17 17 17 17 17 17 17 17 18 19 19 19 19 19 19 19 20 20 20 20 20 20 20 21 21 21 21 22 22 22 22 21 21 21 21 22 22 22 22 22 22 22 22 21 21 21 22 22 23 23 23 24 24 24 24 24 24 24 24
18 18 17 17 17 17 16 16 16 17 16 17 17 17 18 18 18 18 18 19 19 19 19 19 19 19 19 19 20 20 20 21 21 21 21 20 20 20 21 21 21 21 20 20 20 20 20 20 20 20 21 21 21 22 22 22 23 23 23 23 23 23 23
17 17 17 17 17 16 16 16 17 17 18 17 17 17 17 18 18 18 18 18 18 19 19 18 18 18 19 19 19 20 20 20 20 20 20 19 19 19 20 20 20 19 19 19 19 20 20 20 21 21 20 20 20 21 21 21 21 21 22 22 22 22 21
17 17 17 17 17 16 16 16 17 17 18 18 17 17 18 18 18 18 17 17 18 18 18 18 18 18 18 18 19 19 19 19 19 19 19 19 19 19 19 19 19 19 19 19 19 20 20 20 20 19 19 19 19 19 19 19 19 19 20 20 20 20 20
17 17 17 17 16 16 16 16 16 16 16 16 16 17 17 18 18 18 17 17 18 18 17 17 18 18 18 18 18 18 19 19 19 19 19 19 19 19 19 19 19 18 19 19 19 19 20 20 19 18 18 18 18 18 18 18 18 18 18 18 19 19 19
17 17 17 17 17 17 17 16 16 16 16 16 16 17 17 18 17 17 17 18 18 18 17 17 18 18 18 18 18 18 18 18 19 19 19 18 19 19 19 18 18 18 18 18 18 18 18 18 18 17 17 17 17 17 17 17 17 17 17 17 17 18 17
17 17 17 17 17 17 17 17 16 16 16 16 17 17 17 18 17 17 17 17 17 17 17 17 18 18 18 18 18 18 18 18 18 18 18 18 19 19 19 18 18 18 18 18 18 18 17 17 16 16 16 16 16 16 16 16 16 16 16 16 17 17 17
17 17 17 17 17 17 17 17 16 16 16 16 17 17 17 17 17 17 17 17 17 17 17 17 17 18 18 18 18 18 18 18 18 18 18 18 19 19 19 18 18 18 18 18 19 18 17 16 16 16 16 16 15 15 15 15 16 16 16 17 17 17 17
18 18 18 18 17 17 17 17 17 17 17 17 17 17 17 17 17 17 17 17 17 17 17 17 17 18 18 18 18 18 18 18 18 18 18 18 19 19 19 18 18 18 18 18 18 18 17 17 16 16 16 15 15 15 15 15 16 16 16 16 17 17 17
18 18 18 18 17 18 18 17 17 17 17 17 17 17 17 17 17 17 17 17 17 17 17 17 18 18 18 18 18 18 18 18 18 18 18 19 19 19 18 18 18 18 18 18 18 18 18 17 16 16 16 16 15 15 15 15 15 16 16 16 16 17 17
18 18 18 18 18 18 18 17 17 17 17 17 17 17 17 18 18 17 17 17 17 18 18 18 18 18 18 18 18 18 18 18 18 18 18 18 19 19 18 18 18 18 18 17 17 18 17 17 16 16 17 16 16 16 15 15 15 16 16 16 17 17 18
18 18 18 18 18 18 18 18 17 17 17 17 17 17 17 17 17 17 17 17 17 17 18 18 18 18 18 18 18 18 18 18 18 18 18 18 18 18 18 18 18 18 18 17 17 17 17 17 17 16 16 16 16 16 15 15 15 16 16 17 17 17 18
18 18 18 18 18 19 18 18 17 17 17 17 17 17 17 17 17 17 17 17 17 17 18 18 18 18 18 18 18 19 19 18 18 18 18 18 18 18 18 18 18 18 18 17 17 17 17 17 17 17 17 16 16 16 16 16 16 16 17 17 17 17 18
18 18 18 18 19 19 19 18 18 17 17 17 17 17 17 17 17 17 17 17 17 18 18 18 18 18 18 18 18 19 19 19 18 18 18 18 17 17 17 17 18 18 18 17 17 17 16 17 17 17 17 16 16 16 16 16 16 16 16 16 16 17 17
18 17 18 18 18 19 18 18 18 18 17 17 17 17 17 17 17 18 18 18 18 18 18 18 18 18 18 18 18 18 18 18 18 18 18 18 18 18 17 17 17 17 17 17 17 17 17 16 16 16 16 16 16 16 16 16 15 15 15 15 16 16 16
18 18 17 18 18 18 18 18 18 18 18 17 17 17 17 17 17 18 18 18 18 18 18 18 18 18 18 18 18 18 18 18 18 17 17 17 17 17 17 17 17 17 17 17 17 17 17 16 16 16 16 16 16 16 15 15 15 15 15 15 15 15 16
19 18 18 18 19 19 18 18 18 18 18 18 17 17 17 17 17 18 18 18 18 18 17 17 17 18 18 18 17 17 17 17 17 17 17 17 16 16 16 16 16 16 16 16 16 16 16 16 16 16 16 16 16 15 15 15 14 14 14 15 14 14 15

ECMWFFLT1_925_temp_114.txt.gz
Temp
24 24 25 25 25 25 24 24 24 24 24 24 24 24 24 24 24 23 23 24 24 24 24 24 24 24 24 24 24 24 24 24 24 24 25 25 25 25 25 25 24 24 24 24 24 24 24 24 24 24 24 24 24 24 24 24 24 24 24 24 24 24 24
24 24 25 25 25 25 24 24 24 24 24 24 24 24 24 24 24 23 23 24 24 24 25 25 24 24 24 24 24 24 24 24 24 24 24 24 24 25 25 25 25 25 25 25 24 24 24 24 24 24 24 24 24 24 24 24 24 24 24 24 24 24 24
23 24 25 25 25 25 24 24 24 24 25 24 24 24 24 24 24 24 24 24 24 24 24 25 24 24 24 24 24 24 24 24 24 24 24 24 24 25 25 25 25 25 25 25 24 24 24 24 24 24 24 24 24 24 24 24 24 24 24 24 24 24 24
23 24 25 25 25 25 24 24 24 24 25 25 25 24 24 24 24 24 24 24 24 24 24 25 25 25 25 24 24 24 24 24 24 24 24 24 24 24 25 25 25 25 24 25 25 24 24 24 24 24 24 24 24 24 24 24 24 24 24 24 24 24 24
24 24 24 24 25 25 24 24 24 25 25 25 25 25 25 25 24 24 24 24 24 24 25 25 25 25 24 24 24 24 24 24 24 24 24 24 24 24 24 24 24 24 25 25 24 24 24 24 24 24 24 24 24 24 24 24 24 24 24 24 24 24 24
24 24 24 24 24 24 24 24 24 25 25 25 25 25 25 25 24 24 24 24 24 24 25 25 25 25 24 24 24 24 24 24 24 24 24 24 24 24 24 24 24 24 24 24 24 24 24 24 24 24 24 24 24 24 24 24 24 24 24 24 24 24 24
24 24 24 24 24 24 24 24 25 25 25 25 25 25 25 25 24 24 24 24 24 24 24 24 24 24 24 24 24 24 24 24 24 24 24 24 24 24 24 24 24 24 24 24 24 24 24 24 24 24 24 24 24 24 25 25 24 24 24 24 24 24 24
25 24 24 24 24 24 24 24 25 25 25 25 25 25 25 25 24 24 24 24 24 24 24 24 24 24 24 24 24 24 24 24 24 24 24 24 24 24 24 24 24 24 24 24 24 25 24 25 25 25 25 25 25 25 25 25 25 24 24 24 24 24 24
25 24 24 24 24 24 23 24 25 25 25 25 24 25 24 24 24 24 24 24 24 24 24 24 24 24 24 24 24 24 24 24 24 24 24 24 24 24 24 25 25 24 24 24 25 25 25 25 25 25 25 25 25 25 25 25 25 25 24 24 24 24 24
25 24 24 23 23 23 22 23 24 24 24 24 24 24 24 24 24 24 24 24 24 24 24 24 24 24 24 24 24 24 24 24 24 24 24 24 24 24 24 25 25 25 25 25 25 25 25 25 25 25 25 25 25 25 25 25 25 25 25 25 25 24 24
24 24 23 23 23 23 22 22 22 23 23 23 24 24 24 24 24 24 24 24 24 24 24 24 24 24 24 24 24 24 24 24 24 24 24 24 24 24 24 24 25 25 25 25 25 25 25 25 25 25 25 25 25 25 25 25 25 25 25 25 25 25 25
22 22 22 22 22 22 22 22 22 22 22 23 23 24 24 24 24 24 24 24 24 23 23 23 23 23 23 23 23 23 24 24 24 24 24 24 24 24 24 24 24 25 25 25 25 25 25 25 25 25 25 25 25 25 25 25 25 25 25 25 25 25 25
22 22 21 21 22 22 22 22 22 22 22 22 23 23 24 24 24 24 24 23 24 24 23 23 23 23 23 23 23 23 23 24 24 24 24 24 24 24 24 24 24 25 25 25 25 25 25 25 25 25 25 25 25 26 26 26 26 26 25 25 25 25 25
21 21 21 21 21 22 22 22 22 21 21 21 22 22 23 23 23 24 24 24 24 24 24 24 23 23 23 23 23 23 23 24 24 24 24 24 25 25 25 24 24 25 25 25 25 25 25 25 25 25 25 26 26 26 26 26 26 26 26 26 26 25 25
21 21 21 21 21 21 22 22 22 21 21 21 21 21 22 22 23 23 23 23 23 24 24 24 24 23 23 23 23 23 24 24 24 24 24 24 24 25 25 25 25 25 25 25 25 25 25 25 25 26 26 26 26 26 26 26 26 26 26 26 26 26 26
21 21 21 21 21 21 21 21 21 20 20 20 20 21 21 21 22 22 23 23 23 23 23 23 23 23 23 23 23 24 24 24 24 24 24 24 24 25 25 25 25 25 25 25 25 25 25 25 26 26 26 26 26 26 26 26 26 26 26 26 26 26 26
21 21 21 21 21 21 21 21 20 20 20 20 20 20 21 21 22 22 22 23 23 23 23 23 23 23 23 23 24 24 23 24 24 24 24 24 24 24 25 25 25 25 25 25 25 25 25 25 26 26 26 26 26 26 26 26 26 26 26 26 26 25 26
21 21 21 21 21 21 21 21 20 20 20 20 20 20 20 21 21 22 22 22 22 22 22 23 23 23 23 22 22 23 23 23 23 23 23 24 24 24 24 24 25 25 25 25 25 25 25 25 25 25 25 26 26 26 26 26 26 26 26 26 25 25 25
21 21 21 21 20 20 20 20 20 20 20 20 20 20 20 21 21 21 22 21 21 21 21 22 22 22 22 21 21 22 23 23 23 23 23 24 24 24 24 24 24 24 24 24 23 23 22 23 24 24 24 25 25 25 25 25 25 26 25 25 24 24 24
20 20 20 19 19 19 19 19 19 19 19 20 20 20 20 20 20 20 20 20 20 20 20 21 21 21 21 21 21 21 22 22 23 23 23 23 23 23 23 23 23 23 22 22 22 21 21 22 23 24 24 24 24 24 24 24 24 25 25 24 24 24 24
19 18 18 18 18 18 18 18 18 18 19 19 20 20 19 19 19 19 19 19 19 19 20 20 20 20 20 21 20 21 21 22 22 22 22 22 22 22 22 22 21 20 20 21 22 22 23 23 23 22 22 22 22 23 23 23 23 24 24 24 23 23 23
18 17 17 17 17 17 17 17 17 18 18 18 19 19 19 19 19 19 19 19 19 19 19 20 20 20 20 20 20 20 21 21 21 21 21 21 22 21 21 20 19 19 20 21 20 20 21 21 21 21 22 22 22 22 22 22 22 23 23 23 23 23 23
17 17 17 17 16 16 16 17 17 17 17 18 18 18 19 19 19 19 19 19 19 19 19 19 19 19 19 19 20 20 20 20 20 20 20 20 20 20 20 20 20 20 21 21 19 19 20 20 20 21 22 22 21 21 21 21 21 21 21 22 22 22 22
17 16 16 16 16 16 16 16 16 16 17 17 17 17 18 18 18 18 18 18 19 19 19 19 19 19 19 19 20 20 20 20 20 20 20 20 20 19 19 20 21 21 20 20 19 19 20 20 20 20 20 20 20 20 20 20 20 20 20 20 20 20 21
16 16 16 16 16 15 15 16 16 16 16 16 16 17 17 17 17 17 17 17 17 18 18 18 18 19 19 19 19 19 19 19 19 19 20 20 20 19 19 19 20 20 20 20 19 20 20 20 19 19 19 19 19 18 19 19 19 19 19 19 20 20 20
16 16 16 16 16 16 16 16 16 16 16 16 16 16 17 17 17 16 16 16 17 16 16 16 17 17 18 18 18 19 19 19 19 19 19 19 19 19 19 19 19 20 19 19 19 19 19 18 18 18 18 18 18 18 18 18 18 18 18 18 19 19 19
16 16 16 16 16 16 16 16 16 16 15 16 16 17 17 17 16 16 16 16 16 16 16 16 17 17 18 18 18 18 18 18 19 18 18 18 19 19 19 19 19 19 19 18 18 18 18 17 17 17 17 17 17 17 17 17 17 17 17 17 18 18 18
16 16 17 17 16 16 16 15 15 16 16 16 16 17 17 17 16 15 16 16 15 15 16 17 17 17 17 17 17 18 18 18 18 18 18 18 18 19 18 18 18 19 19 18 17 17 17 17 17 17 16 16 16 16 16 16 16 17 17 17 17 17 17
16 16 16 17 17 17 16 16 15 16 16 16 17 17 17 17 16 16 16 15 15 16 16 17 17 17 17 17 17 17 18 18 18 18 18 18 18 18 18 18 18 18 19 18 17 17 16 16 16 16 15 15 15 16 16 16 16 17 17 17 18 18 18
16 16 16 16 16 17 17 16 16 16 16 17 17 17 17 17 17 16 16 16 16 16 16 16 17 17 17 17 17 17 18 18 18 18 18 18 18 18 18 18 18 18 18 18 18 17 16 16 16 16 15 15 16 16 16 16 16 16 17 17 17 18 18
16 16 16 16 16 17 17 16 16 16 17 17 17 17 17 17 17 17 16 16 17 17 17 17 17 17 17 17 17 17 18 18 18 18 18 18 18 18 18 18 18 18 18 18 18 18 17 16 16 16 16 16 16 16 16 16 16 16 17 17 17 18 18
16 16 16 16 16 17 17 17 17 16 17 17 17 17 17 17 17 17 17 17 17 17 18 18 18 18 17 17 18 18 18 18 18 18 18 18 18 19 18 18 18 18 17 17 17 18 17 17 16 16 15 15 15 15 15 16 16 16 16 17 17 17 17
15 16 16 16 16 16 17 17 16 16 16 17 17 17 17 17 17 17 17 17 17 18 18 18 18 18 18 18 18 18 18 18 18 18 18 18 18 18 18 18 18 17 17 17 17 17 17 16 16 16 16 16 16 16 15 15 16 16 16 17 17 17 17
15 16 16 16 16 17 17 17 16 16 16 16 17 17 17 17 17 17 17 17 17 18 18 18 18 18 18 18 18 18 18 18 18 18 18 18 18 18 18 18 18 18 17 17 16 16 16 16 16 16 16 16 16 16 15 16 16 16 16 17 17 17 17
16 16 16 16 17 17 17 17 17 17 16 16 17 17 17 17 17 17 18 18 18 18 18 18 18 18 18 18 18 18 18 18 18 18 18 18 17 17 17 17 18 18 17 17 17 16 16 16 15 15 15 15 15 15 15 15 16 16 16 16 16 16 17
17 17 17 17 17 17 17 17 17 17 17 17 17 17 17 17 17 18 18 18 18 18 18 18 18 18 18 18 18 18 18 18 18 18 17 17 17 17 17 17 17 17 17 17 17 16 16 16 15 15 15 15 15 15 15 15 15 16 16 16 16 16 16
18 18 18 18 18 18 17 17 17 17 17 17 17 17 17 17 17 17 18 18 18 18 18 18 18 18 18 18 18 17 17 17 17 17 17 17 17 17 17 16 16 16 16 16 16 16 16 16 15 15 15 16 15 15 15 15 15 15 15 15 15 15 16
18 19 18 19 19 18 18 18 18 17 17 17 17 17 17 17 17 17 17 17 17 17 18 18 18 17 17 17 17 17 17 17 17 17 17 16 16 16 16 16 16 16 16 16 16 16 16 16 16 16 16 15 15 15 15 14 14 14 15 15 15 15 15

ECMWFFLT1_925_temp_117.txt.gz
Temp
26 26 26 26 26 26 27 27 26 26 26 25 25 25 25 25 24 24 24 24 23 23 24 24 24 24 24 24 24 24 24 24 24 24 24 24 24 24 24 24 24 24 24 24 24 24 24 24 24 24 24 24 23 23 24 24 23 23 24 24 24 24 24
26 26 26 26 26 26 27 27 26 26 26 25 25 25 25 25 24 24 24 24 24 24 24 24 24 24 24 24 24 24 24 24 24 24 24 24 24 24 24 24 24 24 24 24 24 24 24 24 24 24 24 24 23 23 23 23 23 23 23 24 24 24 24
26 26 26 26 26 26 26 26 26 26 26 26 26 25 25 25 24 24 24 24 24 24 24 24 24 24 24 24 24 24 24 24 24 24 24 24 24 24 24 24 24 24 24 24 24 24 24 24 24 24 24 24 23 23 23 23 23 23 23 24 23 23 23
25 26 26 26 26 26 26 26 26 26 26 26 26 25 25 25 24 24 24 24 24 23 23 24 24 24 24 24 24 24 24 24 24 24 24 24 24 24 24 24 24 24 24 24 25 25 24 24 24 24 24 24 24 24 24 24 24 24 24 24 23 23 23
25 26 26 26 26 26 26 26 26 26 26 25 25 25 25 25 24 24 24 24 24 24 24 24 24 24 24 24 24 23 24 24 24 24 24 24 24 24 24 24 24 24 24 24 24 25 25 24 24 24 24 24 24 24 24 24 24 24 24 24 23 23 24
26 26 25 25 26 26 26 27 26 26 26 25 25 25 25 25 24 24 24 24 24 24 24 24 24 24 24 24 24 23 24 24 24 24 24 24 24 24 24 24 24 24 24 24 24 24 24 24 24 24 24 24 24 24 24 24 24 24 24 24 24 24 24
26 25 25 25 25 26 26 27 27 26 26 25 25 25 25 25 25 25 24 24 24 24 24 24 24 24 24 24 24 24 24 24 24 24 24 24 24 24 24 24 24 24 24 24 24 24 24 24 24 24 24 24 24 24 24 24 24 24 24 24 24 24 24
26 26 25 25 26 26 26 27 27 26 26 26 25 25 25 25 25 24 24 24 24 24 24 24 24 24 24 24 24 24 24 24 24 24 24 24 24 24 24 24 24 24 24 24 24 24 24 24 24 24 24 24 24 24 24 24 24 24 24 24 24 24 24
26 26 26 26 26 26 26 26 26 26 26 26 25 25 25 25 25 24 24 24 24 24 24 24 24 24 25 25 24 24 24 24 24 24 24 24 24 24 24 24 24 24 24 24 24 24 24 24 24 24 24 24 24 25 24 24 25 24 24 24 24 24 24
26 25 25 25 25 26 26 26 26 26 25 25 25 25 25 25 24 24 24 24 24 24 24 24 24 24 25 25 24 24 24 24 24 24 24 24 24 24 24 24 24 24 24 24 24 24 24 24 24 24 25 25 25 25 25 25 25 25 24 24 24 24 24
25 25 25 25 25 25 25 25 25 25 25 25 25 25 25 25 24 24 24 24 24 24 24 24 24 24 24 24 24 23 23 24 24 24 24 24 24 24 25 25 24 24 24 24 24 24 24 24 25 25 25 25 25 25 25 25 25 25 25 24 24 24 24
23 24 24 24 24 24 24 24 25 25 25 25 25 25 25 25 24 24 24 24 24 24 24 24 24 24 23 23 23 23 23 23 23 23 24 24 24 24 24 24 24 24 24 24 24 24 24 24 24 25 25 25 25 25 25 25 25 25 25 25 25 25 25
22 22 22 23 23 23 23 24 24 24 24 24 24 24 24 24 24 24 24 24 24 24 24 24 24 24 24 23 23 23 23 23 23 23 24 24 24 24 24 24 24 25 24 24 24 24 25 25 25 25 25 25 25 25 25 25 25 25 26 26 25 25 25
21 21 22 22 23 23 23 23 23 24 24 24 24 24 24 24 24 24 24 24 24 24 24 24 24 24 24 24 23 23 23 23 23 23 24 24 24 24 24 24 24 24 24 24 24 25 25 25 25 25 25 25 25 25 25 26 26 26 26 26 26 26 26
21 21 21 22 22 22 23 23 23 24 23 23 23 23 23 23 24 24 24 24 24 24 24 24 24 24 24 24 23 23 24 24 23 24 24 24 24 24 24 24 24 24 24 24 24 25 25 25 25 25 25 25 25 26 26 26 26 26 26 26 26 26 25
21 21 21 21 21 22 22 23 23 24 23 23 23 23 23 23 23 23 23 23 23 23 24 24 24 23 23 23 23 23 24 24 24 24 24 24 24 24 24 24 24 24 24 24 24 24 25 25 25 25 25 25 25 26 26 25 25 26 26 26 25 25 25
21 21 21 21 21 21 21 22 23 23 23 23 22 22 22 22 22 22 23 23 23 23 23 23 23 23 23 23 23 23 23 23 23 23 23 23 24 24 24 24 24 24 24 24 24 24 24 24 24 25 25 25 25 25 25 25 25 25 26 26 25 25 24
21 21 21 21 21 21 21 21 21 22 22 22 22 22 21 22 22 22 22 22 23 23 23 23 23 23 23 22 22 22 22 22 22 22 22 23 23 24 23 23 23 23 23 23 23 23 23 23 24 25 24 24 25 25 25 25 25 25 25 25 25 25 24
21 21 21 21 21 21 21 21 21 21 21 21 21 21 21 21 22 22 22 22 22 22 22 22 22 22 22 22 22 22 22 22 21 21 22 22 22 22 23 23 22 22 22 23 23 23 23 23 23 24 24 24 24 24 24 24 25 25 25 25 25 25 24
20 20 20 21 21 20 20 20 20 20 20 20 20 20 20 21 21 21 22 22 22 22 22 22 22 22 22 22 22 22 22 21 20 20 20 20 20 20 21 21 22 22 22 22 23 23 23 23 23 24 24 23 23 23 23 24 24 24 24 24 24 24 24
19 19 19 19 19 19 19 19 19 19 19 20 20 20 20 20 20 20 20 21 21 21 21 21 21 21 22 22 22 21 21 20 20 19 19 19 19 19 20 20 20 21 22 22 22 23 23 23 23 23 23 22 23 23 22 23 23 23 23 23 23 23 23
18 18 18 18 18 17 17 18 18 18 18 19 19 19 19 20 20 20 20 20 20 20 20 20 20 20 21 21 21 20 20 20 20 19 19 19 19 20 20 20 20 21 22 23 22 22 22 22 22 22 21 21 22 21 21 21 21 21 21 22 22 22 21
17 17 17 17 17 17 17 17 17 17 17 18 18 18 18 19 19 19 19 19 19 19 19 19 19 19 19 19 19 19 20 20 20 19 19 19 19 20 21 21 20 20 22 22 21 21 21 21 21 21 20 20 20 20 20 20 20 20 20 20 20 20 20
17 17 17 17 16 16 16 16 17 17 17 17 17 17 18 18 18 19 18 18 18 18 18 18 18 18 19 19 19 19 19 20 20 19 19 19 19 20 20 20 20 20 21 21 21 20 20 20 20 19 19 19 19 19 19 19 19 19 19 19 19 20 20
17 17 16 16 16 16 16 16 16 16 16 16 16 17 17 18 18 18 17 17 17 17 17 17 17 17 18 18 19 19 19 19 19 19 19 19 19 19 20 20 20 21 20 20 19 19 19 19 19 18 18 18 18 18 18 18 18 18 18 19 19 19 19
17 17 17 16 16 16 16 16 16 16 16 16 16 16 16 17 17 16 15 16 16 16 15 15 16 16 17 17 18 18 18 18 18 18 18 18 18 18 19 19 19 20 19 18 18 18 18 18 18 18 18 18 18 18 18 18 18 18 18 18 18 19 19
17 18 17 17 16 16 16 16 15 15 15 15 16 16 16 16 16 15 15 15 15 14 15 15 16 16 17 17 17 17 18 18 18 18 18 18 18 18 18 18 18 19 19 18 18 18 18 18 17 17 17 17 17 17 17 17 17 18 18 18 18 18 18
18 18 17 17 17 16 16 15 15 15 15 16 16 15 16 16 16 15 15 15 14 15 16 17 17 17 17 17 17 17 18 18 18 18 18 18 18 18 17 17 18 18 17 17 17 17 17 16 16 16 16 16 16 16 17 17 17 17 17 18 18 18 18
18 18 18 18 17 17 16 15 15 15 16 16 16 16 16 16 15 15 15 15 15 16 17 17 17 17 17 17 17 17 17 17 18 18 18 18 18 18 17 17 17 17 17 16 17 17 16 16 15 15 15 15 16 16 16 16 17 17 17 18 18 18 18
18 18 18 18 18 17 17 16 16 16 16 16 16 16 16 16 15 15 15 15 15 17 17 17 17 17 17 17 17 17 18 18 18 18 18 18 18 18 17 17 17 17 17 17 16 16 16 16 16 16 16 16 16 16 16 17 17 17 17 18 18 18 18
17 18 18 18 17 17 17 17 16 16 16 16 17 17 17 16 16 15 15 16 16 17 17 17 17 18 17 17 18 18 18 18 18 18 18 18 18 18 18 18 17 17 17 17 17 16 17 17 17 17 17 17 17 16 16 17 17 17 17 18 18 18 18
17 17 17 17 17 17 17 17 17 17 17 17 17 17 17 17 17 17 16 17 17 17 18 18 18 18 18 17 18 18 18 18 18 18 18 18 18 18 18 18 17 17 17 17 17 17 17 17 17 17 17 17 16 16 16 16 17 17 17 17 18 18 18
17 17 17 17 17 17 17 18 17 17 17 16 16 17 17 17 17 17 17 18 18 18 18 18 18 18 18 17 18 18 18 18 18 18 18 18 18 18 18 18 18 17 17 17 17 17 18 17 17 17 17 17 16 16 16 16 16 16 17 17 17 17 18
17 16 16 16 16 17 17 17 17 17 16 16 16 17 17 17 17 18 18 18 18 18 18 18 18 18 18 18 18 17 17 17 17 17 17 17 17 17 17 17 17 17 17 17 16 17 17 17 16 16 16 16 16 16 16 16 16 16 16 16 16 17 17
17 16 16 16 17 17 17 17 17 17 16 16 17 17 17 17 17 18 18 18 18 18 18 18 18 18 18 17 17 17 17 17 17 17 17 17 17 17 16 16 16 17 17 17 17 16 16 16 15 15 15 16 16 16 16 16 16 16 16 16 16 15 16
17 16 16 16 16 17 16 16 16 16 16 16 17 17 17 17 17 17 17 18 18 18 18 18 18 18 17 17 17 17 17 17 17 17 17 17 16 16 16 16 16 16 16 16 17 17 16 16 15 15 15 15 16 16 16 16 16 16 16 16 15 15 15
17 17 17 16 16 16 16 16 17 17 17 17 17 17 17 17 17 17 17 17 18 18 18 18 18 17 17 17 17 17 17 17 17 17 17 17 16 16 16 16 16 16 16 16 16 16 16 16 16 16 16 16 15 16 15 15 15 15 15 15 16 16 16
17 17 17 17 17 16 16 16 16 16 17 17 17 17 17 17 17 17 17 17 18 18 18 18 17 17 17 17 17 17 17 17 17 17 16 16 16 16 16 16 16 16 16 16 16 16 16 16 16 16 16 15 15 15 15 15 15 15 15 15 16 16 16

ECMWFFLT1_925_temp_123.txt.gz
Temp
28 31 33 33 32 32 32 32 32 31 31 31 31 31 31 31 30 30 29 28 27 27 26 26 26 26 26 26 26 26 26 27 26 26 26 26 26 27 27 27 27 27 27 28 28 27 27 27 27 27 26 26 26 26 25 25 25 26 26 25 26 26 26
28 31 33 33 32 32 32 32 32 32 31 31 31 30 30 31 30 30 29 28 28 27 27 27 26 26 26 26 26 26 26 27 27 27 27 27 26 27 27 27 27 27 27 28 28 27 27 27 27 27 26 26 26 26 25 25 25 26 26 25 26 26 26
26 29 32 33 32 32 32 32 32 32 31 31 31 31 30 30 30 29 29 28 28 27 27 27 27 27 27 26 26 26 26 27 27 27 27 27 27 27 27 27 27 27 27 27 27 27 27 27 27 26 26 26 27 26 26 26 26 26 26 25 26 26 26
25 26 31 33 32 32 32 32 32 32 31 31 31 31 30 30 30 29 29 29 28 28 28 27 27 27 27 27 27 27 27 27 27 27 27 28 28 28 28 27 27 28 28 28 28 28 28 27 27 26 26 26 26 26 26 26 26 26 26 25 26 26 26
25 24 30 33 32 32 32 32 32 32 31 31 31 31 30 30 30 29 29 29 28 28 28 28 28 28 27 27 27 27 27 27 27 27 28 28 28 28 28 28 28 28 28 28 28 27 27 27 27 27 26 26 26 26 26 26 26 26 26 26 26 26 26
26 24 28 32 32 32 32 32 32 32 31 31 31 31 31 30 30 30 29 29 29 28 28 29 29 29 28 28 28 28 27 27 27 27 27 28 28 28 28 28 28 28 28 28 28 28 27 27 27 27 27 27 27 27 27 27 27 27 26 26 26 26 26
26 24 26 30 32 32 32 32 32 32 31 31 31 31 31 30 30 30 30 29 29 29 29 29 29 29 29 28 28 28 28 28 28 27 28 28 28 28 28 28 28 29 29 28 28 28 28 27 27 27 28 27 27 28 28 27 27 27 27 26 26 26 26
27 25 27 29 31 32 31 32 32 32 32 31 31 31 31 31 31 30 30 30 30 30 29 30 30 29 29 29 28 28 28 28 28 28 28 28 28 28 28 28 28 28 29 29 28 28 28 28 28 28 28 28 28 28 28 27 26 27 27 27 26 26 26
26 26 27 28 30 32 32 32 32 32 32 31 31 31 31 31 31 30 30 30 30 30 30 30 29 29 28 28 28 28 28 28 28 28 28 29 29 29 29 29 29 28 28 29 29 28 28 28 28 28 27 27 27 27 27 27 26 26 27 27 26 26 27
26 25 26 27 29 31 31 31 31 31 31 31 31 31 31 31 30 30 30 30 30 30 29 29 29 29 28 28 28 28 28 28 28 28 29 29 29 29 29 29 29 29 28 29 29 29 28 28 28 28 27 27 27 26 26 27 26 26 26 27 27 26 26
26 24 25 26 28 30 30 30 30 30 30 31 31 31 30 30 30 30 30 30 30 29 29 29 29 29 28 28 28 28 28 28 28 28 29 29 29 29 29 29 29 29 29 29 29 29 29 28 28 28 27 27 27 26 26 26 26 26 26 27 27 27 27
26 25 25 25 27 29 29 30 30 30 30 30 31 30 30 30 30 29 29 29 29 29 29 29 29 29 28 28 28 28 28 28 28 28 29 28 29 29 29 29 30 30 29 29 29 29 29 28 28 27 27 27 27 26 26 26 26 26 26 26 27 27 26
26 25 24 25 25 27 29 30 30 30 30 30 30 30 29 29 29 29 29 29 29 29 28 28 28 28 28 27 27 28 28 28 29 29 29 28 28 28 29 29 29 30 30 29 29 29 29 29 28 28 27 27 27 27 26 26 26 26 26 26 26 26 25
25 25 24 24 24 25 26 29 30 30 30 30 30 29 28 28 28 28 28 28 29 28 28 28 28 28 27 27 27 27 28 28 29 29 28 28 28 28 28 29 29 29 29 29 29 29 29 29 29 28 27 27 27 27 26 26 26 26 25 25 25 26 25
25 25 24 23 24 24 23 25 28 29 29 29 29 29 29 29 28 28 28 28 28 28 28 28 28 28 27 26 26 27 27 28 28 28 28 27 27 26 27 27 28 29 29 29 29 29 29 29 29 29 28 27 27 27 27 26 26 25 25 25 25 25 25
24 24 23 22 22 23 23 24 27 29 29 29 29 29 29 29 28 28 28 28 28 28 28 27 27 27 27 26 26 26 27 27 27 27 27 26 25 25 26 26 26 27 28 28 28 28 28 28 29 29 29 28 27 27 26 26 25 25 25 25 25 25 25
24 24 23 22 21 22 22 22 24 27 29 29 28 28 28 28 28 28 27 27 27 27 27 27 27 27 27 26 25 25 26 26 26 26 25 25 25 26 26 26 26 26 27 27 27 27 27 28 28 28 29 28 26 25 25 24 25 25 26 25 25 26 26
24 24 23 22 21 21 22 21 22 25 28 28 28 28 28 27 27 27 27 27 27 27 27 26 26 26 26 26 25 24 25 25 25 25 24 25 25 25 25 26 25 25 26 26 26 26 27 27 27 27 27 26 24 24 24 24 24 25 25 25 25 26 26
23 22 22 22 21 21 21 21 21 23 26 26 27 27 27 27 27 27 27 27 26 26 26 26 26 26 26 26 25 24 25 24 24 24 24 24 24 25 25 25 25 25 25 25 25 26 26 26 27 27 26 25 24 23 23 23 24 24 24 25 25 25 25
22 21 20 20 20 20 20 20 20 21 22 24 25 26 26 26 26 26 26 26 26 26 26 26 26 26 25 25 25 23 24 24 24 24 23 23 24 24 24 24 24 24 24 24 25 25 25 25 26 26 26 25 24 23 22 23 23 23 23 24 24 24 24
21 21 20 20 20 19 19 20 20 20 21 22 23 24 24 25 25 25 25 25 25 26 26 26 26 26 25 25 24 23 23 24 24 23 23 23 23 24 24 24 24 23 24 24 24 25 24 23 24 25 25 24 23 22 21 22 22 23 23 23 23 23 23
21 20 20 20 20 19 19 19 19 19 20 21 22 23 23 23 24 24 24 24 25 25 25 25 25 25 25 25 24 23 23 24 24 23 23 23 23 23 23 23 23 22 22 23 23 24 23 23 24 24 23 22 21 21 20 20 21 21 21 21 22 22 22
21 20 20 20 20 20 19 19 19 19 20 20 21 22 22 22 22 22 23 23 23 23 23 23 23 23 24 24 24 23 23 23 22 23 23 22 22 22 22 22 22 21 21 22 22 23 23 23 22 21 20 20 20 20 20 19 20 20 20 20 21 21 22
20 20 20 19 19 19 19 18 19 19 19 19 19 20 20 21 21 21 21 21 21 21 21 20 21 21 22 23 23 22 21 21 21 21 22 22 21 22 22 21 21 22 22 22 21 21 22 22 21 20 20 20 20 20 19 19 19 20 20 20 20 21 21
20 19 19 19 18 18 18 18 19 19 19 19 19 18 19 19 20 19 19 19 19 19 19 19 19 19 20 21 21 20 20 19 19 20 21 21 21 21 21 20 20 21 21 21 20 20 20 20 19 19 19 19 19 19 19 19 19 19 19 20 20 20 20
19 19 19 18 18 18 18 18 18 18 18 18 18 17 17 18 18 18 18 18 18 18 18 18 18 18 19 20 20 20 19 19 19 19 20 20 20 20 20 20 20 19 19 19 19 19 19 18 18 18 18 18 18 18 18 18 19 19 19 19 20 20 20
19 19 19 18 18 18 18 18 18 18 18 17 17 17 17 17 17 17 17 18 18 17 17 17 17 17 18 19 19 19 19 19 19 19 19 19 19 19 19 19 19 19 18 18 18 18 18 18 18 18 18 17 17 17 17 18 18 18 19 19 19 20 19
19 19 19 19 18 18 18 18 18 18 18 18 17 17 17 17 17 17 17 17 17 17 17 17 17 17 17 18 18 18 18 18 18 18 18 18 18 18 18 18 18 18 18 18 18 18 17 17 17 18 17 17 17 17 17 17 18 18 19 19 19 19 19
19 19 19 19 19 19 19 18 18 18 18 18 18 18 17 17 17 17 17 17 17 17 17 17 17 17 17 17 17 17 18 18 18 18 17 18 18 18 17 17 17 17 17 17 17 17 17 17 17 17 17 17 17 17 18 18 18 18 18 18 19 19 19
21 20 20 19 19 19 19 19 18 18 18 18 18 18 17 17 17 17 17 17 17 18 18 18 18 17 17 17 17 17 17 17 17 18 17 17 18 18 17 17 17 18 17 17 17 17 17 17 17 17 17 17 17 17 18 18 18 18 18 18 19 19 19
21 20 20 20 20 20 19 19 19 19 18 18 18 17 17 17 18 18 18 18 18 18 18 18 18 18 18 18 18 18 17 17 18 18 17 17 18 18 18 18 18 18 18 18 18 18 18 18 18 18 18 18 18 18 18 18 18 18 18 18 18 18 18
21 21 21 20 20 20 19 19 19 19 19 19 18 18 18 18 18 18 18 18 18 18 18 18 18 18 18 19 19 19 19 19 19 18 18 18 18 18 18 18 18 18 18 18 18 18 18 18 18 18 18 19 19 18 18 19 19 19 18 18 18 18 17
21 21 21 21 20 20 20 19 19 19 19 19 19 19 19 19 19 19 19 19 19 18 18 18 18 18 18 18 19 19 19 20 20 20 20 19 19 19 19 19 19 19 18 19 19 19 19 19 19 19 19 19 19 19 19 19 19 19 18 18 17 17 17
20 20 21 20 20 20 20 20 20 20 20 20 20 20 20 20 19 19 19 19 19 19 19 19 19 19 19 19 19 19 19 20 20 20 20 20 19 19 19 19 19 19 18 18 19 19 20 20 19 19 19 19 19 19 19 19 18 18 18 17 17 17 17
20 20 20 20 20 20 20 20 20 20 20 20 20 20 20 20 20 20 20 20 20 20 20 20 20 21 21 21 20 20 20 20 20 20 19 19 18 18 18 18 18 18 18 18 18 19 19 19 19 19 19 19 18 18 18 18 17 16 16 16 16 16 17
20 20 20 20 20 19 19 19 20 20 20 20 20 20 20 20 20 20 20 20 20 20 20 21 21 21 21 21 21 20 20 20 19 19 19 19 18 18 17 17 18 18 18 18 18 18 18 18 18 18 18 18 17 17 17 16 16 16 16 16 16 16 17
20 20 20 20 20 20 20 20 20 20 20 20 20 20 20 20 20 20 20 20 20 20 21 21 21 21 21 21 20 20 20 20 19 19 19 19 18 18 17 17 17 17 18 17 17 17 17 17 17 17 18 17 17 16 16 16 16 16 16 16 16 17 17
20 20 20 20 20 20 20 20 20 20 20 20 20 20 20 20 20 20 20 20 20 21 21 21 21 21 21 20 20 20 20 20 19 19 19 18 18 18 18 17 17 17 17 17 17 17 17 17 17 17 17 17 16 16 16 16 16 16 17 17 17 17 17